Time,TemperatureF,DewpointF,PressureIn,WindDirection,WindDirectionDegrees,WindSpeedMPH,WindSpeedGustMPH,Humidity,HourlyPrecipIn,Conditions,Clouds,dailyrainin,SolarRadiationWatts/m^2,SoftwareType,DateUTC
2013-02-13 00:00:00,33.2,21.2,29.89,WNW,292,0.0,0.0,61,0.00,,SCT055,0.00,0.00,VWS V14.01,2013-02-13 04:00:00,
2013-02-13 00:01:00,34.1,19.6,29.91,WNW,291,0.0,0.0,55,0.00,,,0.00,,VWS V13.01,2013-02-13 04:01:00,
2013-02-13 00:02:00,34.1,19.6,29.91,WNW,291,0.0,6.0,55,0.00,,,0.00,,VWS V13.01,2013-02-13 04:02:00,
2013-02-13 00:03:00,34.1,19.6,29.91,WNW,291,6.0,6.0,55,0.00,,,0.00,,VWS V13.01,2013-02-13 04:03:00,
2013-02-13 00:05:00,34.1,20.1,29.91,WNW,291,0.0,6.0,56,0.00,,,0.00,,VWS V13.01,2013-02-13 04:05:00,
2013-02-13 00:06:00,34.1,20.1,29.91,WNW,291,0.0,0.0,56,0.00,,,0.00,,VWS V13.01,2013-02-13 04:06:00,
2013-02-13 00:07:00,34.1,20.1,29.91,WNW,291,0.0,0.0,56,0.00,,,0.00,,VWS V13.01,2013-02-13 04:07:00,
2013-02-13 00:08:00,34.0,20.0,29.91,WNW,291,0.0,0.0,56,0.00,,,0.00,,VWS V13.01,2013-02-13 04:08:00,
2013-02-13 00:10:00,34.0,20.0,29.91,WNW,291,0.0,0.0,56,0.00,,,0.00,,VWS V13.01,2013-02-13 04:10:00,
2013-02-13 00:11:00,34.0,20.0,29.91,WNW,291,0.0,0.0,56,0.00,,,0.00,,VWS V13.01,2013-02-13 04:11:00,
2013-02-13 00:12:00,34.0,20.0,29.91,WNW,291,0.0,0.0,56,0.00,,,0.00,,VWS V13.01,2013-02-13 04:12:00,
2013-02-13 00:14:00,34.0,20.0,29.91,WNW,291,0.0,0.0,56,0.00,,,0.00,,VWS V13.01,2013-02-13 04:14:00,
2013-02-13 00:15:00,34.0,20.0,29.91,WNW,291,0.0,0.0,56,0.00,,,0.00,,VWS V13.01,2013-02-13 04:15:00,
2013-02-13 00:17:00,34.0,20.4,29.90,WNW,291,0.0,0.0,57,0.00,,,0.00,,VWS V13.01,2013-02-13 04:17:00,
2013-02-13 00:19:00,34.0,20.4,29.90,WNW,291,0.0,0.0,57,0.00,,,0.00,,VWS V13.01,2013-02-13 04:19:00,
2013-02-13 00:20:00,34.0,20.4,29.90,WNW,291,0.0,0.0,57,0.00,,,0.00,,VWS V13.01,2013-02-13 04:20:00,
2013-02-13 00:22:00,33.8,20.2,29.90,WNW,289,0.0,6.0,57,0.00,,,0.00,,VWS V13.01,2013-02-13 04:22:00,
2013-02-13 00:24:00,33.8,20.6,29.90,WNW,289,0.0,0.0,58,0.00,,,0.00,,VWS V13.01,2013-02-13 04:24:00,
2013-02-13 00:25:00,33.8,20.6,29.90,WNW,289,0.0,0.0,58,0.00,,,0.00,,VWS V13.01,2013-02-13 04:25:00,
2013-02-13 00:27:00,33.8,20.6,29.90,WNW,289,0.0,0.0,58,0.00,,,0.00,,VWS V13.01,2013-02-13 04:27:00,
2013-02-13 00:30:00,33.7,20.5,29.90,WNW,289,0.0,0.0,58,0.00,,,0.00,,VWS V13.01,2013-02-13 04:30:00,
2013-02-13 00:32:00,33.7,20.9,29.89,WNW,292,0.0,6.0,59,0.00,,,0.00,,VWS V13.01,2013-02-13 04:32:00,
2013-02-13 00:35:00,33.7,20.9,29.89,WNW,292,0.0,0.0,59,0.00,,,0.00,,VWS V13.01,2013-02-13 04:35:00,
2013-02-13 00:36:00,33.7,20.9,29.89,WNW,292,0.0,0.0,59,0.00,,,0.00,,VWS V13.01,2013-02-13 04:36:00,
2013-02-13 00:37:00,33.7,20.9,29.89,WNW,292,0.0,0.0,59,0.00,,,0.00,,VWS V13.01,2013-02-13 04:37:00,
2013-02-13 00:38:00,33.7,20.9,29.89,WNW,292,0.0,0.0,59,0.00,,,0.00,,VWS V13.01,2013-02-13 04:38:00,
2013-02-13 00:40:00,33.7,20.9,29.89,WNW,292,0.0,0.0,59,0.00,,,0.00,,VWS V13.01,2013-02-13 04:40:00,
2013-02-13 00:41:00,33.7,21.3,29.89,WNW,292,0.0,6.0,60,0.00,,,0.00,,VWS V13.01,2013-02-13 04:41:00,
2013-02-13 00:42:00,33.7,21.3,29.89,WNW,292,0.0,6.0,60,0.00,,,0.00,,VWS V13.01,2013-02-13 04:42:00,
2013-02-13 00:44:00,33.5,21.1,29.89,WNW,292,0.0,0.0,60,0.00,,,0.00,,VWS V13.01,2013-02-13 04:44:00,
2013-02-13 00:45:00,33.5,21.1,29.89,WNW,292,0.0,0.0,60,0.00,,,0.00,,VWS V13.01,2013-02-13 04:45:00,
2013-02-13 00:46:00,33.5,21.1,29.89,WNW,292,0.0,0.0,60,0.00,,,0.00,,VWS V13.01,2013-02-13 04:46:00,
2013-02-13 00:47:00,33.5,21.1,29.89,WNW,292,0.0,0.0,60,0.00,,,0.00,,VWS V13.01,2013-02-13 04:47:00,
2013-02-13 00:50:00,33.5,21.1,29.89,WNW,292,0.0,0.0,60,0.00,,,0.00,,VWS V13.01,2013-02-13 04:50:00,
2013-02-13 00:52:00,33.5,21.1,29.89,WNW,292,0.0,0.0,60,0.00,,,0.00,,VWS V13.01,2013-02-13 04:52:00,
2013-02-13 00:55:00,33.4,21.4,29.89,WNW,292,0.0,0.0,61,0.00,,,0.00,,VWS V13.01,2013-02-13 04:55:00,
2013-02-13 00:57:00,33.4,21.4,29.89,WNW,292,0.0,0.0,61,0.00,,,0.00,,VWS V13.01,2013-02-13 04:57:00,
2013-02-13 01:00:00,33.2,21.2,29.89,WNW,292,0.0,0.0,61,0.00,,,0.00,,VWS V13.01,2013-02-13 05:00:00,
2013-02-13 01:05:00,33.1,21.1,29.89,WNW,292,0.0,0.0,61,0.00,,,0.00,,VWS V13.01,2013-02-13 05:05:00,
2013-02-13 01:06:00,33.1,21.1,29.89,WNW,292,0.0,0.0,61,0.00,,,0.00,,VWS V13.01,2013-02-13 05:06:00,
2013-02-13 01:10:00,32.9,20.9,29.89,WNW,292,0.0,0.0,61,0.00,,,0.00,,VWS V13.01,2013-02-13 05:10:00,
2013-02-13 01:11:00,32.9,20.9,29.89,WNW,292,0.0,0.0,61,0.00,,,0.00,,VWS V13.01,2013-02-13 05:11:00,
2013-02-13 01:15:00,32.7,21.1,29.89,WNW,292,0.0,0.0,62,0.00,,,0.00,,VWS V13.01,2013-02-13 05:15:00,
2013-02-13 01:16:00,32.7,21.1,29.89,WNW,292,0.0,0.0,62,0.00,,,0.00,,VWS V13.01,2013-02-13 05:16:00,
2013-02-13 01:17:00,32.7,21.1,29.89,WNW,292,0.0,0.0,62,0.00,,,0.00,,VWS V13.01,2013-02-13 05:17:00,
2013-02-13 01:21:00,32.5,20.9,29.89,WNW,292,0.0,0.0,62,0.00,,,0.00,,VWS V13.01,2013-02-13 05:21:00,
2013-02-13 01:22:00,32.4,20.9,29.89,WNW,292,0.0,0.0,62,0.00,,,0.00,,VWS V13.01,2013-02-13 05:22:00,
2013-02-13 01:26:00,32.2,20.7,29.89,WNW,292,0.0,0.0,62,0.00,,,0.00,,VWS V13.01,2013-02-13 05:26:00,
2013-02-13 01:27:00,32.1,20.6,29.89,WNW,292,0.0,0.0,62,0.00,,,0.00,,VWS V13.01,2013-02-13 05:27:00,
2013-02-13 01:30:00,29.0,19.4,29.88,WNW,292,0.0,0.0,67,0.00,,SCT055,0.00,0.00,VWS V14.01,2013-02-13 05:30:00,
2013-02-13 01:31:00,31.9,20.8,29.88,WNW,292,0.0,0.0,63,0.00,,,0.00,,VWS V13.01,2013-02-13 05:31:00,
2013-02-13 01:32:00,31.9,20.8,29.88,WNW,292,0.0,0.0,63,0.00,,,0.00,,VWS V13.01,2013-02-13 05:32:00,
2013-02-13 01:36:00,31.6,20.5,29.88,WNW,292,0.0,0.0,63,0.00,,,0.00,,VWS V13.01,2013-02-13 05:36:00,
2013-02-13 01:37:00,31.6,20.8,29.88,WNW,292,0.0,0.0,64,0.00,,,0.00,,VWS V13.01,2013-02-13 05:37:00,
2013-02-13 01:41:00,31.3,20.5,29.88,WNW,292,0.0,0.0,64,0.00,,,0.00,,VWS V13.01,2013-02-13 05:41:00,
2013-02-13 01:42:00,31.3,20.2,29.88,WNW,292,0.0,0.0,63,0.00,,,0.00,,VWS V13.01,2013-02-13 05:42:00,
2013-02-13 01:43:00,31.3,20.2,29.88,WNW,292,0.0,0.0,63,0.00,,,0.00,,VWS V13.01,2013-02-13 05:43:00,
2013-02-13 01:47:00,31.2,20.1,29.88,WNW,292,0.0,0.0,63,0.00,,,0.00,,VWS V13.01,2013-02-13 05:47:00,
2013-02-13 01:48:00,31.0,20.3,29.88,WNW,292,0.0,0.0,64,0.00,,,0.00,,VWS V13.01,2013-02-13 05:48:00,
2013-02-13 01:52:00,30.9,20.2,29.88,WNW,292,0.0,0.0,64,0.00,,,0.00,,VWS V13.01,2013-02-13 05:52:00,
2013-02-13 01:53:00,30.9,20.2,29.88,WNW,292,0.0,0.0,64,0.00,,,0.00,,VWS V13.01,2013-02-13 05:53:00,
2013-02-13 01:54:00,30.7,20.0,29.88,WNW,292,0.0,0.0,64,0.00,,,0.00,,VWS V13.01,2013-02-13 05:54:00,
2013-02-13 01:57:00,30.6,20.2,29.88,WNW,292,0.0,0.0,65,0.00,,,0.00,,VWS V13.01,2013-02-13 05:57:00,
2013-02-13 01:58:00,30.6,20.2,29.88,WNW,292,0.0,0.0,65,0.00,,,0.00,,VWS V13.01,2013-02-13 05:58:00,
2013-02-13 02:00:00,27.8,19.3,29.88,WNW,292,0.0,0.0,70,0.00,,SCT055,0.00,0.00,VWS V14.01,2013-02-13 06:00:00,
2013-02-13 02:01:00,30.4,20.1,29.89,WNW,292,0.0,0.0,65,0.00,,,0.00,,VWS V13.01,2013-02-13 06:01:00,
2013-02-13 02:02:00,30.3,20.0,29.89,WNW,292,0.0,0.0,65,0.00,,,0.00,,VWS V13.01,2013-02-13 06:02:00,
2013-02-13 02:03:00,30.3,20.0,29.89,WNW,292,0.0,0.0,65,0.00,,,0.00,,VWS V13.01,2013-02-13 06:03:00,
2013-02-13 02:06:00,30.1,19.8,29.89,WNW,292,0.0,0.0,65,0.00,,,0.00,,VWS V13.01,2013-02-13 06:06:00,
2013-02-13 02:07:00,30.1,20.1,29.89,WNW,292,0.0,0.0,66,0.00,,,0.00,,VWS V13.01,2013-02-13 06:07:00,
2013-02-13 02:08:00,30.1,20.1,29.89,WNW,292,0.0,0.0,66,0.00,,,0.00,,VWS V13.01,2013-02-13 06:08:00,
2013-02-13 02:11:00,29.8,19.8,29.89,WNW,292,0.0,0.0,66,0.00,,,0.00,,VWS V13.01,2013-02-13 06:11:00,
2013-02-13 02:13:00,29.8,19.8,29.89,WNW,292,0.0,0.0,66,0.00,,,0.00,,VWS V13.01,2013-02-13 06:13:00,
2013-02-13 02:16:00,29.5,19.9,29.88,WNW,292,0.0,0.0,67,0.00,,,0.00,,VWS V13.01,2013-02-13 06:16:00,
2013-02-13 02:18:00,29.5,19.9,29.88,WNW,292,0.0,0.0,67,0.00,,,0.00,,VWS V13.01,2013-02-13 06:18:00,
2013-02-13 02:21:00,29.4,19.8,29.88,WNW,292,0.0,0.0,67,0.00,,,0.00,,VWS V13.01,2013-02-13 06:21:00,
2013-02-13 02:23:00,29.3,19.7,29.88,WNW,292,0.0,0.0,67,0.00,,,0.00,,VWS V13.01,2013-02-13 06:23:00,
2013-02-13 02:24:00,29.3,19.7,29.88,WNW,292,0.0,0.0,67,0.00,,,0.00,,VWS V13.01,2013-02-13 06:24:00,
2013-02-13 02:27:00,29.1,19.5,29.88,WNW,292,0.0,0.0,67,0.00,,,0.00,,VWS V13.01,2013-02-13 06:27:00,
2013-02-13 02:28:00,29.1,19.5,29.88,WNW,292,0.0,0.0,67,0.00,,,0.00,,VWS V13.01,2013-02-13 06:28:00,
2013-02-13 02:29:00,29.1,19.5,29.88,WNW,292,0.0,0.0,67,0.00,,,0.00,,VWS V13.01,2013-02-13 06:29:00,
2013-02-13 02:30:00,27.2,19.4,29.88,WNW,285,0.0,0.0,72,0.00,,SCT055,0.00,0.00,VWS V14.01,2013-02-13 06:30:00,
2013-02-13 02:32:00,29.0,19.4,29.88,WNW,292,0.0,0.0,67,0.00,,,0.00,,VWS V13.01,2013-02-13 06:32:00,
2013-02-13 02:34:00,28.8,19.2,29.88,WNW,292,0.0,0.0,67,0.00,,,0.00,,VWS V13.01,2013-02-13 06:34:00,
2013-02-13 02:37:00,28.8,19.2,29.88,WNW,292,0.0,0.0,67,0.00,,,0.00,,VWS V13.01,2013-02-13 06:37:00,
2013-02-13 02:39:00,28.7,19.5,29.88,WNW,292,0.0,0.0,68,0.00,,,0.00,,VWS V13.01,2013-02-13 06:39:00,
2013-02-13 02:42:00,28.5,19.3,29.88,WNW,292,0.0,0.0,68,0.00,,,0.00,,VWS V13.01,2013-02-13 06:42:00,
2013-02-13 02:44:00,28.5,19.3,29.88,WNW,292,0.0,0.0,68,0.00,,,0.00,,VWS V13.01,2013-02-13 06:44:00,
2013-02-13 02:45:00,28.4,19.2,29.88,WNW,292,0.0,0.0,68,0.00,,,0.00,,VWS V13.01,2013-02-13 06:45:00,
2013-02-13 02:47:00,28.4,19.5,29.88,WNW,292,0.0,0.0,69,0.00,,,0.00,,VWS V13.01,2013-02-13 06:47:00,
2013-02-13 02:49:00,28.2,19.4,29.88,WNW,292,0.0,0.0,69,0.00,,,0.00,,VWS V13.01,2013-02-13 06:49:00,
2013-02-13 02:51:00,28.2,19.4,29.88,WNW,292,0.0,0.0,69,0.00,,,0.00,,VWS V13.01,2013-02-13 06:51:00,
2013-02-13 02:53:00,28.1,19.3,29.88,WNW,292,0.0,0.0,69,0.00,,,0.00,,VWS V13.01,2013-02-13 06:53:00,
2013-02-13 02:54:00,28.1,19.6,29.88,WNW,292,0.0,0.0,70,0.00,,,0.00,,VWS V13.01,2013-02-13 06:54:00,
2013-02-13 02:55:00,28.1,19.6,29.88,WNW,292,0.0,0.0,70,0.00,,,0.00,,VWS V13.01,2013-02-13 06:55:00,
2013-02-13 02:56:00,27.9,19.4,29.88,WNW,292,0.0,0.0,70,0.00,,,0.00,,VWS V13.01,2013-02-13 06:56:00,
2013-02-13 02:58:00,27.9,19.4,29.88,WNW,292,0.0,0.0,70,0.00,,,0.00,,VWS V13.01,2013-02-13 06:58:00,
2013-02-13 03:00:00,27.9,19.4,29.88,WNW,292,0.0,0.0,70,0.00,,,0.00,,VWS V13.01,2013-02-13 07:00:00,
2013-02-13 03:01:00,27.8,19.3,29.88,WNW,292,0.0,0.0,70,0.00,,,0.00,,VWS V13.01,2013-02-13 07:01:00,
2013-02-13 03:03:00,27.8,19.3,29.88,WNW,292,0.0,0.0,70,0.00,,,0.00,,VWS V13.01,2013-02-13 07:03:00,
2013-02-13 03:05:00,27.8,19.3,29.88,WNW,292,0.0,0.0,70,0.00,,,0.00,,VWS V13.01,2013-02-13 07:05:00,
2013-02-13 03:06:00,27.6,19.1,29.88,WNW,287,0.0,0.0,70,0.00,,,0.00,,VWS V13.01,2013-02-13 07:06:00,
2013-02-13 03:08:00,27.6,19.4,29.88,WNW,292,0.0,0.0,71,0.00,,,0.00,,VWS V13.01,2013-02-13 07:08:00,
2013-02-13 03:10:00,27.6,19.4,29.88,WNW,292,0.0,0.0,71,0.00,,,0.00,,VWS V13.01,2013-02-13 07:10:00,
2013-02-13 03:11:00,27.5,19.4,29.88,WNW,292,0.0,0.0,71,0.00,,,0.00,,VWS V13.01,2013-02-13 07:11:00,
2013-02-13 03:13:00,27.5,19.7,29.88,WNW,292,0.0,0.0,72,0.00,,,0.00,,VWS V13.01,2013-02-13 07:13:00,
2013-02-13 03:15:00,27.5,19.7,29.88,WNW,292,0.0,0.0,72,0.00,,,0.00,,VWS V13.01,2013-02-13 07:15:00,
2013-02-13 03:17:00,27.3,19.5,29.88,WNW,292,0.0,0.0,72,0.00,,,0.00,,VWS V13.01,2013-02-13 07:17:00,
2013-02-13 03:19:00,27.3,19.5,29.88,WNW,292,0.0,0.0,72,0.00,,,0.00,,VWS V13.01,2013-02-13 07:19:00,
2013-02-13 03:20:00,27.3,19.5,29.88,WNW,292,0.0,0.0,72,0.00,,,0.00,,VWS V13.01,2013-02-13 07:20:00,
2013-02-13 03:22:00,27.3,19.5,29.88,WNW,292,0.0,0.0,72,0.00,,,0.00,,VWS V13.01,2013-02-13 07:22:00,
2013-02-13 03:24:00,27.2,19.4,29.88,WNW,292,0.0,0.0,72,0.00,,,0.00,,VWS V13.01,2013-02-13 07:24:00,
2013-02-13 03:25:00,27.2,19.4,29.88,WNW,292,0.0,0.0,72,0.00,,,0.00,,VWS V13.01,2013-02-13 07:25:00,
2013-02-13 03:27:00,27.2,19.4,29.88,WNW,292,0.0,0.0,72,0.00,,,0.00,,VWS V13.01,2013-02-13 07:27:00,
2013-02-13 03:29:00,27.2,19.4,29.88,WNW,292,0.0,0.0,72,0.00,,,0.00,,VWS V13.01,2013-02-13 07:29:00,
2013-02-13 03:30:00,27.2,19.4,29.88,WNW,292,0.0,0.0,72,0.00,,,0.00,,VWS V13.01,2013-02-13 07:30:00,
2013-02-13 03:32:00,27.0,19.2,29.88,WNW,292,0.0,0.0,72,0.00,,,0.00,,VWS V13.01,2013-02-13 07:32:00,
2013-02-13 03:34:00,27.0,19.2,29.88,WNW,292,0.0,0.0,72,0.00,,,0.00,,VWS V13.01,2013-02-13 07:34:00,
2013-02-13 03:35:00,27.0,19.5,29.88,WNW,292,0.0,0.0,73,0.00,,,0.00,,VWS V13.01,2013-02-13 07:35:00,
2013-02-13 03:36:00,27.0,19.5,29.88,WNW,292,0.0,0.0,73,0.00,,,0.00,,VWS V13.01,2013-02-13 07:36:00,
2013-02-13 03:37:00,26.9,19.4,29.88,WNW,292,0.0,0.0,73,0.00,,,0.00,,VWS V13.01,2013-02-13 07:37:00,
2013-02-13 03:39:00,26.9,19.4,29.88,WNW,292,0.0,0.0,73,0.00,,,0.00,,VWS V13.01,2013-02-13 07:39:00,
2013-02-13 03:41:00,26.9,19.4,29.88,WNW,292,0.0,0.0,73,0.00,,,0.00,,VWS V13.01,2013-02-13 07:41:00,
2013-02-13 03:42:00,26.9,19.4,29.88,WNW,292,0.0,0.0,73,0.00,,,0.00,,VWS V13.01,2013-02-13 07:42:00,
2013-02-13 03:44:00,26.9,19.4,29.88,WNW,292,0.0,0.0,73,0.00,,,0.00,,VWS V13.01,2013-02-13 07:44:00,
2013-02-13 03:46:00,26.7,19.2,29.87,WNW,292,0.0,0.0,73,0.00,,,0.00,,VWS V13.01,2013-02-13 07:46:00,
2013-02-13 03:47:00,26.7,19.2,29.87,WNW,292,0.0,0.0,73,0.00,,,0.00,,VWS V13.01,2013-02-13 07:47:00,
2013-02-13 03:49:00,26.7,19.2,29.87,WNW,292,0.0,0.0,73,0.00,,,0.00,,VWS V13.01,2013-02-13 07:49:00,
2013-02-13 03:52:00,26.6,19.1,29.87,WNW,292,0.0,0.0,73,0.00,,,0.00,,VWS V13.01,2013-02-13 07:52:00,
2013-02-13 03:53:00,26.6,19.4,29.87,WNW,292,0.0,0.0,74,0.00,,,0.00,,VWS V13.01,2013-02-13 07:53:00,
2013-02-13 03:54:00,26.6,19.4,29.87,WNW,292,0.0,0.0,74,0.00,,,0.00,,VWS V13.01,2013-02-13 07:54:00,
2013-02-13 03:57:00,26.4,19.2,29.87,WNW,292,0.0,0.0,74,0.00,,,0.00,,VWS V13.01,2013-02-13 07:57:00,
2013-02-13 03:58:00,26.6,19.4,29.87,WNW,292,0.0,0.0,74,0.00,,,0.00,,VWS V13.01,2013-02-13 07:58:00,
2013-02-13 03:59:00,26.4,19.2,29.87,WNW,292,0.0,0.0,74,0.00,,,0.00,,VWS V13.01,2013-02-13 07:59:00,
2013-02-13 04:00:00,25.8,19.9,29.86,WNW,292,0.0,0.0,78,0.00,,SCT055,0.00,0.00,VWS V14.01,2013-02-13 08:00:00,
2013-02-13 04:02:00,26.4,19.2,29.88,WNW,292,0.0,0.0,74,0.00,,,0.00,,VWS V13.01,2013-02-13 08:02:00,
2013-02-13 04:03:00,26.4,19.6,29.88,WNW,292,0.0,0.0,75,0.00,,,0.00,,VWS V13.01,2013-02-13 08:03:00,
2013-02-13 04:04:00,26.4,19.6,29.88,WNW,292,0.0,0.0,75,0.00,,,0.00,,VWS V13.01,2013-02-13 08:04:00,
2013-02-13 04:08:00,26.3,19.5,29.88,WNW,292,0.0,0.0,75,0.00,,,0.00,,VWS V13.01,2013-02-13 08:08:00,
2013-02-13 04:09:00,26.3,19.5,29.88,WNW,292,0.0,0.0,75,0.00,,,0.00,,VWS V13.01,2013-02-13 08:09:00,
2013-02-13 04:10:00,26.3,19.5,29.88,WNW,292,0.0,0.0,75,0.00,,,0.00,,VWS V13.01,2013-02-13 08:10:00,
2013-02-13 04:13:00,26.3,19.5,29.88,WNW,292,0.0,0.0,75,0.00,,,0.00,,VWS V13.01,2013-02-13 08:13:00,
2013-02-13 04:14:00,26.3,19.5,29.88,WNW,292,0.0,0.0,75,0.00,,,0.00,,VWS V13.01,2013-02-13 08:14:00,
2013-02-13 04:16:00,26.3,19.5,29.87,WNW,292,0.0,0.0,75,0.00,,,0.00,,VWS V13.01,2013-02-13 08:16:00,
2013-02-13 04:18:00,26.3,19.8,29.87,WNW,292,0.0,0.0,76,0.00,,,0.00,,VWS V13.01,2013-02-13 08:18:00,
2013-02-13 04:19:00,26.3,19.8,29.87,WNW,292,0.0,0.0,76,0.00,,,0.00,,VWS V13.01,2013-02-13 08:19:00,
2013-02-13 04:22:00,26.1,19.6,29.87,WNW,292,0.0,0.0,76,0.00,,,0.00,,VWS V13.01,2013-02-13 08:22:00,
2013-02-13 04:23:00,26.1,19.6,29.87,WNW,292,0.0,0.0,76,0.00,,,0.00,,VWS V13.01,2013-02-13 08:23:00,
2013-02-13 04:24:00,26.1,19.6,29.87,WNW,292,0.0,0.0,76,0.00,,,0.00,,VWS V13.01,2013-02-13 08:24:00,
2013-02-13 04:25:00,26.3,19.8,29.87,WNW,292,0.0,0.0,76,0.00,,,0.00,,VWS V13.01,2013-02-13 08:25:00,
2013-02-13 04:28:00,26.1,19.6,29.87,WNW,292,0.0,0.0,76,0.00,,,0.00,,VWS V13.01,2013-02-13 08:28:00,
2013-02-13 04:29:00,26.1,19.6,29.87,WNW,292,0.0,0.0,76,0.00,,,0.00,,VWS V13.01,2013-02-13 08:29:00,
2013-02-13 04:30:00,26.1,19.6,29.87,WNW,292,0.0,0.0,76,0.00,,,0.00,,VWS V13.01,2013-02-13 08:30:00,
2013-02-13 04:33:00,26.1,19.6,29.87,WNW,292,0.0,0.0,76,0.00,,,0.00,,VWS V13.01,2013-02-13 08:33:00,
2013-02-13 04:34:00,26.1,19.9,29.87,WNW,292,0.0,0.0,77,0.00,,,0.00,,VWS V13.01,2013-02-13 08:34:00,
2013-02-13 04:35:00,26.1,19.9,29.87,WNW,292,0.0,0.0,77,0.00,,,0.00,,VWS V13.01,2013-02-13 08:35:00,
2013-02-13 04:38:00,26.1,19.9,29.87,WNW,292,0.0,0.0,77,0.00,,,0.00,,VWS V13.01,2013-02-13 08:38:00,
2013-02-13 04:39:00,26.1,19.9,29.87,WNW,292,0.0,0.0,77,0.00,,,0.00,,VWS V13.01,2013-02-13 08:39:00,
2013-02-13 04:40:00,26.0,19.8,29.87,WNW,292,0.0,0.0,77,0.00,,,0.00,,VWS V13.01,2013-02-13 08:40:00,
2013-02-13 04:43:00,26.0,19.8,29.87,WNW,292,0.0,0.0,77,0.00,,,0.00,,VWS V13.01,2013-02-13 08:43:00,
2013-02-13 04:44:00,26.0,19.8,29.87,WNW,292,0.0,0.0,77,0.00,,,0.00,,VWS V13.01,2013-02-13 08:44:00,
2013-02-13 04:45:00,26.0,19.8,29.87,WNW,292,0.0,0.0,77,0.00,,,0.00,,VWS V13.01,2013-02-13 08:45:00,
2013-02-13 04:48:00,25.8,19.6,29.86,WNW,292,0.0,0.0,77,0.00,,,0.00,,VWS V13.01,2013-02-13 08:48:00,
2013-02-13 04:49:00,25.8,19.6,29.86,WNW,292,0.0,0.0,77,0.00,,,0.00,,VWS V13.01,2013-02-13 08:49:00,
2013-02-13 04:52:00,25.8,19.6,29.86,WNW,292,0.0,0.0,77,0.00,,,0.00,,VWS V13.01,2013-02-13 08:52:00,
2013-02-13 04:54:00,25.8,19.6,29.86,WNW,292,0.0,0.0,77,0.00,,,0.00,,VWS V13.01,2013-02-13 08:54:00,
2013-02-13 04:55:00,25.8,19.6,29.86,WNW,285,0.0,0.0,77,0.00,,,0.00,,VWS V13.01,2013-02-13 08:55:00,
2013-02-13 04:57:00,25.8,19.6,29.86,WNW,292,0.0,0.0,77,0.00,,,0.00,,VWS V13.01,2013-02-13 08:57:00,
2013-02-13 04:59:00,25.8,19.9,29.86,WNW,292,0.0,0.0,78,0.00,,,0.00,,VWS V13.01,2013-02-13 08:59:00,
2013-02-13 05:00:00,25.8,19.9,29.86,WNW,292,0.0,0.0,78,0.00,,,0.00,,VWS V13.01,2013-02-13 09:00:00,
2013-02-13 05:02:00,25.8,19.9,29.86,WNW,292,0.0,0.0,78,0.00,,,0.00,,VWS V13.01,2013-02-13 09:02:00,
2013-02-13 05:04:00,25.7,19.8,29.86,WNW,292,0.0,0.0,78,0.00,,,0.00,,VWS V13.01,2013-02-13 09:04:00,
2013-02-13 05:05:00,25.7,19.8,29.86,WNW,292,0.0,0.0,78,0.00,,,0.00,,VWS V13.01,2013-02-13 09:05:00,
2013-02-13 05:07:00,25.8,19.9,29.86,WNW,292,0.0,0.0,78,0.00,,,0.00,,VWS V13.01,2013-02-13 09:07:00,
2013-02-13 05:09:00,25.7,19.8,29.86,WNW,292,0.0,0.0,78,0.00,,,0.00,,VWS V13.01,2013-02-13 09:09:00,
2013-02-13 05:10:00,25.7,19.8,29.86,WNW,292,0.0,0.0,78,0.00,,,0.00,,VWS V13.01,2013-02-13 09:10:00,
2013-02-13 05:12:00,25.7,19.8,29.86,WNW,292,0.0,0.0,78,0.00,,,0.00,,VWS V13.01,2013-02-13 09:12:00,
2013-02-13 05:14:00,25.7,19.8,29.86,WNW,292,0.0,0.0,78,0.00,,,0.00,,VWS V13.01,2013-02-13 09:14:00,
2013-02-13 05:15:00,25.7,19.8,29.86,WNW,292,0.0,0.0,78,0.00,,,0.00,,VWS V13.01,2013-02-13 09:15:00,
2013-02-13 05:16:00,25.7,19.8,29.86,WNW,292,0.0,0.0,78,0.00,,,0.00,,VWS V13.01,2013-02-13 09:16:00,
2013-02-13 05:17:00,25.6,19.7,29.86,WNW,292,0.0,0.0,78,0.00,,,0.00,,VWS V13.01,2013-02-13 09:17:00,
2013-02-13 05:19:00,25.6,19.7,29.86,WNW,292,0.0,0.0,78,0.00,,,0.00,,VWS V13.01,2013-02-13 09:19:00,
2013-02-13 05:21:00,25.6,19.7,29.86,WNW,292,0.0,0.0,78,0.00,,,0.00,,VWS V13.01,2013-02-13 09:21:00,
2013-02-13 05:23:00,25.6,19.7,29.86,WNW,292,0.0,0.0,78,0.00,,,0.00,,VWS V13.01,2013-02-13 09:23:00,
2013-02-13 05:24:00,25.6,19.7,29.86,WNW,292,0.0,0.0,78,0.00,,,0.00,,VWS V13.01,2013-02-13 09:24:00,
2013-02-13 05:26:00,25.6,19.7,29.86,WNW,292,0.0,0.0,78,0.00,,,0.00,,VWS V13.01,2013-02-13 09:26:00,
2013-02-13 05:28:00,25.4,19.5,29.86,WNW,292,0.0,0.0,78,0.00,,,0.00,,VWS V13.01,2013-02-13 09:28:00,
2013-02-13 05:30:00,25.4,19.5,29.86,WNW,292,0.0,0.0,78,0.00,,,0.00,,VWS V13.01,2013-02-13 09:30:00,
2013-02-13 05:31:00,25.4,19.5,29.86,WNW,292,0.0,0.0,78,0.00,,,0.00,,VWS V13.01,2013-02-13 09:31:00,
2013-02-13 05:33:00,25.3,19.4,29.86,WNW,292,0.0,0.0,78,0.00,,,0.00,,VWS V13.01,2013-02-13 09:33:00,
2013-02-13 05:35:00,25.3,19.4,29.86,WNW,292,0.0,0.0,78,0.00,,,0.00,,VWS V13.01,2013-02-13 09:35:00,
2013-02-13 05:36:00,25.3,19.4,29.86,WNW,292,0.0,0.0,78,0.00,,,0.00,,VWS V13.01,2013-02-13 09:36:00,
2013-02-13 05:38:00,25.3,19.4,29.86,WNW,292,0.0,0.0,78,0.00,,,0.00,,VWS V13.01,2013-02-13 09:38:00,
2013-02-13 05:41:00,25.3,19.4,29.86,WNW,287,0.0,0.0,78,0.00,,,0.00,,VWS V13.01,2013-02-13 09:41:00,
2013-02-13 05:42:00,25.1,19.2,29.86,WNW,292,0.0,0.0,78,0.00,,,0.00,,VWS V13.01,2013-02-13 09:42:00,
2013-02-13 05:43:00,25.1,19.2,29.86,WNW,292,0.0,0.0,78,0.00,,,0.00,,VWS V13.01,2013-02-13 09:43:00,
2013-02-13 05:46:00,25.0,19.1,29.86,WNW,292,0.0,0.0,78,0.00,,,0.00,,VWS V13.01,2013-02-13 09:46:00,
2013-02-13 05:47:00,25.1,19.5,29.86,WNW,292,0.0,0.0,79,0.00,,,0.00,,VWS V13.01,2013-02-13 09:47:00,
2013-02-13 05:49:00,25.0,19.4,29.86,WNW,292,0.0,0.0,79,0.00,,,0.00,,VWS V13.01,2013-02-13 09:49:00,
2013-02-13 05:51:00,25.1,19.5,29.86,WNW,292,0.0,0.0,79,0.00,,,0.00,,VWS V13.01,2013-02-13 09:51:00,
2013-02-13 05:52:00,25.1,19.5,29.86,WNW,292,0.0,0.0,79,0.00,,,0.00,,VWS V13.01,2013-02-13 09:52:00,
2013-02-13 05:54:00,25.0,19.4,29.86,WNW,292,0.0,0.0,79,0.00,,,0.00,,VWS V13.01,2013-02-13 09:54:00,
2013-02-13 05:56:00,25.0,19.4,29.86,WNW,292,0.0,0.0,79,0.00,,,0.00,,VWS V13.01,2013-02-13 09:56:00,
2013-02-13 05:57:00,25.0,19.4,29.86,WNW,292,0.0,0.0,79,0.00,,,0.00,,VWS V13.01,2013-02-13 09:57:00,
2013-02-13 06:00:00,25.0,19.4,29.85,WNW,292,0.0,0.0,79,0.00,,,0.00,,VWS V13.01,2013-02-13 10:00:00,
2013-02-13 06:01:00,25.0,19.4,29.85,WNW,292,0.0,0.0,79,0.00,,,0.00,,VWS V13.01,2013-02-13 10:01:00,
2013-02-13 06:02:00,25.0,19.4,29.85,WNW,292,0.0,0.0,79,0.00,,,0.00,,VWS V13.01,2013-02-13 10:02:00,
2013-02-13 06:03:00,25.0,19.4,29.85,WNW,292,0.0,0.0,79,0.00,,,0.00,,VWS V13.01,2013-02-13 10:03:00,
2013-02-13 06:06:00,25.0,19.4,29.85,WNW,292,0.0,0.0,79,0.00,,,0.00,,VWS V13.01,2013-02-13 10:06:00,
2013-02-13 06:08:00,24.8,19.2,29.85,WNW,292,0.0,0.0,79,0.00,,,0.00,,VWS V13.01,2013-02-13 10:08:00,
2013-02-13 06:11:00,24.8,19.5,29.85,WNW,292,0.0,0.0,80,0.00,,,0.00,,VWS V13.01,2013-02-13 10:11:00,
2013-02-13 06:13:00,24.8,19.5,29.85,WNW,292,0.0,0.0,80,0.00,,,0.00,,VWS V13.01,2013-02-13 10:13:00,
2013-02-13 06:16:00,24.8,19.5,29.85,WNW,292,0.0,0.0,80,0.00,,,0.00,,VWS V13.01,2013-02-13 10:16:00,
2013-02-13 06:17:00,24.7,19.4,29.85,WNW,292,0.0,0.0,80,0.00,,,0.00,,VWS V13.01,2013-02-13 10:17:00,
2013-02-13 06:18:00,24.7,19.4,29.85,WNW,292,0.0,0.0,80,0.00,,,0.00,,VWS V13.01,2013-02-13 10:18:00,
2013-02-13 06:21:00,24.7,19.4,29.85,WNW,292,0.0,0.0,80,0.00,,,0.00,,VWS V13.01,2013-02-13 10:21:00,
2013-02-13 06:22:00,24.7,19.4,29.85,WNW,292,0.0,0.0,80,0.00,,,0.00,,VWS V13.01,2013-02-13 10:22:00,
2013-02-13 06:23:00,24.7,19.4,29.85,WNW,292,0.0,0.0,80,0.00,,,0.00,,VWS V13.01,2013-02-13 10:23:00,
2013-02-13 06:26:00,24.7,19.4,29.85,WNW,292,0.0,0.0,80,0.00,,,0.00,,VWS V13.01,2013-02-13 10:26:00,
2013-02-13 06:28:00,24.7,19.4,29.85,WNW,292,0.0,0.0,80,0.00,,,0.00,,VWS V13.01,2013-02-13 10:28:00,
2013-02-13 06:30:00,24.1,19.4,29.84,WNW,292,0.0,0.0,82,0.00,,SCT055,0.00,0.00,VWS V14.01,2013-02-13 10:30:00,
2013-02-13 06:31:00,24.5,19.2,29.85,WNW,292,0.0,0.0,80,0.00,,,0.00,,VWS V13.01,2013-02-13 10:31:00,
2013-02-13 06:33:00,24.7,19.4,29.85,WNW,292,0.0,0.0,80,0.00,,,0.00,,VWS V13.01,2013-02-13 10:33:00,
2013-02-13 06:34:00,24.5,19.2,29.85,WNW,292,0.0,0.0,80,0.00,,,0.00,,VWS V13.01,2013-02-13 10:34:00,
2013-02-13 06:36:00,24.5,19.5,29.85,WNW,292,0.0,0.0,81,0.00,,,0.00,,VWS V13.01,2013-02-13 10:36:00,
2013-02-13 06:38:00,24.5,19.5,29.85,WNW,292,0.0,0.0,81,0.00,,,0.00,,VWS V13.01,2013-02-13 10:38:00,
2013-02-13 06:39:00,24.7,19.7,29.85,WNW,292,0.0,0.0,81,0.00,,,0.00,,VWS V13.01,2013-02-13 10:39:00,
2013-02-13 06:41:00,24.5,19.5,29.85,WNW,292,0.0,0.0,81,0.00,,,0.00,,VWS V13.01,2013-02-13 10:41:00,
2013-02-13 06:43:00,24.5,19.5,29.85,WNW,292,0.0,0.0,81,0.00,,,0.00,,VWS V13.01,2013-02-13 10:43:00,
2013-02-13 06:44:00,24.5,19.5,29.85,WNW,292,0.0,0.0,81,0.00,,,0.00,,VWS V13.01,2013-02-13 10:44:00,
2013-02-13 06:47:00,24.5,19.5,29.84,WNW,292,0.0,0.0,81,0.00,,,0.00,,VWS V13.01,2013-02-13 10:47:00,
2013-02-13 06:49:00,24.4,19.4,29.84,WNW,292,0.0,0.0,81,0.00,,,0.00,,VWS V13.01,2013-02-13 10:49:00,
2013-02-13 06:52:00,24.5,19.5,29.84,WNW,292,0.0,0.0,81,0.00,,,0.00,,VWS V13.01,2013-02-13 10:52:00,
2013-02-13 06:54:00,24.5,19.5,29.84,WNW,292,0.0,0.0,81,0.00,,,0.00,,VWS V13.01,2013-02-13 10:54:00,
2013-02-13 06:55:00,24.4,19.4,29.84,WNW,292,0.0,0.0,81,0.00,,,0.00,,VWS V13.01,2013-02-13 10:55:00,
2013-02-13 06:57:00,24.4,19.4,29.84,WNW,292,0.0,0.0,81,0.00,,,0.00,,VWS V13.01,2013-02-13 10:57:00,
2013-02-13 06:59:00,24.4,19.4,29.84,WNW,292,0.0,0.0,81,0.00,,,0.00,,VWS V13.01,2013-02-13 10:59:00,
2013-02-13 07:00:00,24.4,19.4,29.84,WNW,292,0.0,0.0,81,0.00,,,0.00,,VWS V13.01,2013-02-13 11:00:00,
2013-02-13 07:01:00,24.4,19.4,29.84,WNW,292,0.0,0.0,81,0.00,,,0.00,,VWS V13.01,2013-02-13 11:01:00,
2013-02-13 07:03:00,24.4,19.4,29.84,WNW,292,0.0,0.0,81,0.00,,,0.00,,VWS V13.01,2013-02-13 11:03:00,
2013-02-13 07:04:00,24.4,19.4,29.84,WNW,292,0.0,0.0,81,0.00,,,0.00,,VWS V13.01,2013-02-13 11:04:00,
2013-02-13 07:05:00,24.4,19.4,29.84,WNW,292,0.0,0.0,81,0.00,,,0.00,,VWS V13.01,2013-02-13 11:05:00,
2013-02-13 07:06:00,24.2,19.2,29.84,WNW,292,0.0,0.0,81,0.00,,,0.00,,VWS V13.01,2013-02-13 11:06:00,
2013-02-13 07:08:00,24.4,19.4,29.84,WNW,292,0.0,0.0,81,0.00,,,0.00,,VWS V13.01,2013-02-13 11:08:00,
2013-02-13 07:09:00,24.2,19.2,29.84,WNW,292,0.0,0.0,81,0.00,,,0.00,,VWS V13.01,2013-02-13 11:09:00,
2013-02-13 07:10:00,24.2,19.2,29.84,WNW,292,0.0,0.0,81,0.00,,,0.00,,VWS V13.01,2013-02-13 11:10:00,
2013-02-13 07:11:00,24.4,19.4,29.84,WNW,292,0.0,0.0,81,0.00,,,0.00,,VWS V13.01,2013-02-13 11:11:00,
2013-02-13 07:13:00,24.2,19.2,29.84,WNW,292,0.0,0.0,81,0.00,,,0.00,,VWS V13.01,2013-02-13 11:13:00,
2013-02-13 07:14:00,24.4,19.4,29.84,WNW,292,0.0,0.0,81,0.00,,,0.00,,VWS V13.01,2013-02-13 11:14:00,
2013-02-13 07:15:00,24.2,19.2,29.84,WNW,292,0.0,0.0,81,0.00,,,0.00,,VWS V13.01,2013-02-13 11:15:00,
2013-02-13 07:16:00,24.2,19.2,29.84,WNW,292,0.0,0.0,81,0.00,,,0.00,,VWS V13.01,2013-02-13 11:16:00,
2013-02-13 07:18:00,24.2,19.2,29.84,WNW,292,0.0,0.0,81,0.00,,,0.00,,VWS V13.01,2013-02-13 11:18:00,
2013-02-13 07:19:00,24.2,19.2,29.84,WNW,292,0.0,0.0,81,0.00,,,0.00,,VWS V13.01,2013-02-13 11:19:00,
2013-02-13 07:20:00,24.2,19.2,29.84,WNW,292,0.0,0.0,81,0.00,,,0.00,,VWS V13.01,2013-02-13 11:20:00,
2013-02-13 07:21:00,24.1,19.1,29.84,WNW,292,0.0,0.0,81,0.00,,,0.00,,VWS V13.01,2013-02-13 11:21:00,
2013-02-13 07:23:00,24.2,19.2,29.84,WNW,292,0.0,0.0,81,0.00,,,0.00,,VWS V13.01,2013-02-13 11:23:00,
2013-02-13 07:25:00,24.1,19.4,29.84,WNW,292,0.0,0.0,82,0.00,,,0.00,,VWS V13.01,2013-02-13 11:25:00,
2013-02-13 07:27:00,24.1,19.4,29.84,WNW,292,0.0,0.0,82,0.00,,,0.00,,VWS V13.01,2013-02-13 11:27:00,
2013-02-13 07:28:00,24.2,19.5,29.84,WNW,292,0.0,0.0,82,0.00,,,0.00,,VWS V13.01,2013-02-13 11:28:00,
2013-02-13 07:30:00,24.1,19.4,29.84,WNW,292,0.0,0.0,82,0.00,,,0.00,,VWS V13.01,2013-02-13 11:30:00,
2013-02-13 07:31:00,24.1,19.4,29.84,WNW,292,0.0,0.0,82,0.00,,,0.00,,VWS V13.01,2013-02-13 11:31:00,
2013-02-13 07:32:00,24.1,19.4,29.84,WNW,292,0.0,0.0,82,0.00,,,0.00,,VWS V13.01,2013-02-13 11:32:00,
2013-02-13 07:34:00,24.1,19.4,29.84,WNW,292,0.0,0.0,82,0.00,,,0.00,,VWS V13.01,2013-02-13 11:34:00,
2013-02-13 07:35:00,24.1,19.4,29.84,WNW,292,0.0,0.0,82,0.00,,,0.00,,VWS V13.01,2013-02-13 11:35:00,
2013-02-13 07:36:00,24.1,19.4,29.84,WNW,292,0.0,0.0,82,0.00,,,0.00,,VWS V13.01,2013-02-13 11:36:00,
2013-02-13 07:38:00,23.9,19.2,29.84,WNW,292,0.0,0.0,82,0.00,,,0.00,,VWS V13.01,2013-02-13 11:38:00,
2013-02-13 07:39:00,24.1,19.4,29.84,WNW,292,0.0,0.0,82,0.00,,,0.00,,VWS V13.01,2013-02-13 11:39:00,
2013-02-13 07:40:00,23.9,19.2,29.84,WNW,292,0.0,0.0,82,0.00,,,0.00,,VWS V13.01,2013-02-13 11:40:00,
2013-02-13 07:41:00,23.9,19.2,29.84,WNW,292,0.0,0.0,82,0.00,,,0.00,,VWS V13.01,2013-02-13 11:41:00,
2013-02-13 07:43:00,24.1,19.4,29.84,WNW,292,0.0,0.0,82,0.00,,,0.00,,VWS V13.01,2013-02-13 11:43:00,
2013-02-13 07:44:00,24.1,19.4,29.84,WNW,292,0.0,0.0,82,0.00,,,0.00,,VWS V13.01,2013-02-13 11:44:00,
2013-02-13 07:46:00,23.9,19.2,29.84,WNW,285,0.0,0.0,82,0.00,,,0.00,,VWS V13.01,2013-02-13 11:46:00,
2013-02-13 07:48:00,23.9,19.2,29.84,WNW,292,0.0,0.0,82,0.00,,,0.00,,VWS V13.01,2013-02-13 11:48:00,
2013-02-13 07:49:00,23.9,19.2,29.84,WNW,292,0.0,0.0,82,0.00,,,0.00,,VWS V13.01,2013-02-13 11:49:00,
2013-02-13 07:51:00,24.1,19.7,29.84,WNW,292,0.0,0.0,83,0.00,,,0.00,,VWS V13.01,2013-02-13 11:51:00,
2013-02-13 07:54:00,24.1,19.7,29.84,WNW,285,0.0,0.0,83,0.00,,,0.00,,VWS V13.01,2013-02-13 11:54:00,
2013-02-13 07:55:00,24.1,19.7,29.84,WNW,292,0.0,0.0,83,0.00,,,0.00,,VWS V13.01,2013-02-13 11:55:00,
2013-02-13 07:56:00,23.9,19.5,29.84,WNW,292,0.0,0.0,83,0.00,,,0.00,,VWS V13.01,2013-02-13 11:56:00,
2013-02-13 07:59:00,24.1,19.7,29.84,WNW,292,0.0,0.0,83,0.00,,,0.00,,VWS V13.01,2013-02-13 11:59:00,
2013-02-13 08:00:00,24.1,19.7,29.84,WNW,292,0.0,0.0,83,0.00,,,0.00,,VWS V13.01,2013-02-13 12:00:00,
2013-02-13 08:01:00,24.1,19.7,29.83,WNW,292,0.0,0.0,83,0.00,,,0.00,,VWS V13.01,2013-02-13 12:01:00,
2013-02-13 08:04:00,24.1,19.7,29.83,WNW,292,0.0,0.0,83,0.00,,,0.00,,VWS V13.01,2013-02-13 12:04:00,
2013-02-13 08:05:00,24.1,19.7,29.83,WNW,292,0.0,0.0,83,0.00,,,0.00,,VWS V13.01,2013-02-13 12:05:00,
2013-02-13 08:06:00,24.1,19.7,29.83,WNW,292,0.0,0.0,83,0.00,,,0.00,,VWS V13.01,2013-02-13 12:06:00,
2013-02-13 08:07:00,24.1,19.7,29.83,WNW,292,0.0,0.0,83,0.00,,,0.00,,VWS V13.01,2013-02-13 12:07:00,
2013-02-13 08:10:00,23.9,19.5,29.83,WNW,292,0.0,0.0,83,0.00,,,0.00,,VWS V13.01,2013-02-13 12:10:00,
2013-02-13 08:12:00,23.9,19.5,29.83,WNW,292,0.0,0.0,83,0.00,,,0.00,,VWS V13.01,2013-02-13 12:12:00,
2013-02-13 08:15:00,23.9,19.5,29.83,WNW,292,0.0,0.0,83,0.00,,,0.00,,VWS V13.01,2013-02-13 12:15:00,
2013-02-13 08:17:00,23.9,19.5,29.84,WNW,292,0.0,0.0,83,0.00,,,0.00,,VWS V13.01,2013-02-13 12:17:00,
2013-02-13 08:20:00,23.9,19.5,29.84,WNW,292,0.0,0.0,83,0.00,,,0.00,,VWS V13.01,2013-02-13 12:20:00,
2013-02-13 08:22:00,23.9,19.5,29.84,WNW,292,0.0,0.0,83,0.00,,,0.00,,VWS V13.01,2013-02-13 12:22:00,
2013-02-13 08:23:00,23.8,19.4,29.84,WNW,292,0.0,0.0,83,0.00,,,0.00,,VWS V13.01,2013-02-13 12:23:00,
2013-02-13 08:25:00,23.9,19.5,29.84,WNW,292,0.0,0.0,83,0.00,,,0.00,,VWS V13.01,2013-02-13 12:25:00,
2013-02-13 08:27:00,23.9,19.5,29.84,WNW,292,0.0,0.0,83,0.00,,,0.00,,VWS V13.01,2013-02-13 12:27:00,
2013-02-13 08:28:00,23.9,19.5,29.84,WNW,292,0.0,0.0,83,0.00,,,0.00,,VWS V13.01,2013-02-13 12:28:00,
2013-02-13 08:30:00,23.8,19.4,29.84,WNW,292,0.0,0.0,83,0.00,,,0.00,,VWS V13.01,2013-02-13 12:30:00,
2013-02-13 08:31:00,23.8,19.4,29.85,WNW,292,0.0,0.0,83,0.00,,,0.00,,VWS V13.01,2013-02-13 12:31:00,
2013-02-13 08:33:00,23.8,19.4,29.85,WNW,292,0.0,0.0,83,0.00,,,0.00,,VWS V13.01,2013-02-13 12:33:00,
2013-02-13 08:35:00,23.8,19.4,29.85,WNW,292,0.0,0.0,83,0.00,,,0.00,,VWS V13.01,2013-02-13 12:35:00,
2013-02-13 08:36:00,23.8,19.4,29.85,WNW,292,0.0,0.0,83,0.00,,,0.00,,VWS V13.01,2013-02-13 12:36:00,
2013-02-13 08:38:00,23.8,19.4,29.85,WNW,292,0.0,0.0,83,0.00,,,0.00,,VWS V13.01,2013-02-13 12:38:00,
2013-02-13 08:39:00,23.6,19.2,29.85,WNW,292,0.0,0.0,83,0.00,,,0.00,,VWS V13.01,2013-02-13 12:39:00,
2013-02-13 08:40:00,23.6,19.2,29.85,WNW,292,0.0,0.0,83,0.00,,,0.00,,VWS V13.01,2013-02-13 12:40:00,
2013-02-13 08:41:00,23.6,19.2,29.85,WNW,292,0.0,0.0,83,0.00,,,0.00,,VWS V13.01,2013-02-13 12:41:00,
2013-02-13 08:43:00,23.6,19.2,29.85,WNW,292,0.0,0.0,83,0.00,,,0.00,,VWS V13.01,2013-02-13 12:43:00,
2013-02-13 08:44:00,23.8,19.4,29.85,WNW,292,0.0,0.0,83,0.00,,,0.00,,VWS V13.01,2013-02-13 12:44:00,
2013-02-13 08:45:00,23.6,19.2,29.85,WNW,292,0.0,0.0,83,0.00,,,0.00,,VWS V13.01,2013-02-13 12:45:00,
2013-02-13 08:46:00,23.6,19.2,29.83,WNW,292,0.0,0.0,83,0.00,,,0.00,,VWS V13.01,2013-02-13 12:46:00,
2013-02-13 08:48:00,23.8,19.4,29.83,WNW,292,0.0,0.0,83,0.00,,,0.00,,VWS V13.01,2013-02-13 12:48:00,
2013-02-13 08:49:00,23.6,19.2,29.83,WNW,292,0.0,0.0,83,0.00,,,0.00,,VWS V13.01,2013-02-13 12:49:00,
2013-02-13 08:51:00,23.6,19.2,29.83,WNW,292,0.0,0.0,83,0.00,,,0.00,,VWS V13.01,2013-02-13 12:51:00,
2013-02-13 08:52:00,23.6,19.2,29.83,WNW,292,0.0,0.0,83,0.00,,,0.00,,VWS V13.01,2013-02-13 12:52:00,
2013-02-13 08:54:00,23.6,19.2,29.83,WNW,292,0.0,0.0,83,0.00,,,0.00,,VWS V13.01,2013-02-13 12:54:00,
2013-02-13 08:56:00,23.6,19.2,29.83,WNW,292,0.0,0.0,83,0.00,,,0.00,,VWS V13.01,2013-02-13 12:56:00,
2013-02-13 08:57:00,23.6,19.2,29.83,WNW,292,0.0,0.0,83,0.00,,,0.00,,VWS V13.01,2013-02-13 12:57:00,
2013-02-13 08:59:00,23.8,19.7,29.83,WNW,292,0.0,0.0,84,0.00,,,0.00,,VWS V13.01,2013-02-13 12:59:00,
2013-02-13 09:00:00,24.5,20.6,29.85,WNW,292,0.0,0.0,85,0.00,,SCT055,0.00,51.00,VWS V14.01,2013-02-13 13:00:00,
2013-02-13 09:01:00,23.6,19.5,29.85,WNW,292,0.0,0.0,84,0.00,,,0.00,,VWS V13.01,2013-02-13 13:01:00,
2013-02-13 09:02:00,23.8,19.7,29.85,WNW,292,0.0,0.0,84,0.00,,,0.00,,VWS V13.01,2013-02-13 13:02:00,
2013-02-13 09:04:00,23.9,19.8,29.85,WNW,292,0.0,0.0,84,0.00,,,0.00,,VWS V13.01,2013-02-13 13:04:00,
2013-02-13 09:06:00,23.9,19.8,29.85,WNW,292,0.0,0.0,84,0.00,,,0.00,,VWS V13.01,2013-02-13 13:06:00,
2013-02-13 09:08:00,23.9,19.8,29.85,WNW,292,0.0,0.0,84,0.00,,,0.00,,VWS V13.01,2013-02-13 13:08:00,
2013-02-13 09:09:00,23.9,19.8,29.85,WNW,292,0.0,0.0,84,0.00,,,0.00,,VWS V13.01,2013-02-13 13:09:00,
2013-02-13 09:11:00,23.9,19.8,29.85,WNW,292,0.0,0.0,84,0.00,,,0.00,,VWS V13.01,2013-02-13 13:11:00,
2013-02-13 09:13:00,23.9,19.8,29.85,WNW,292,0.0,0.0,84,0.00,,,0.00,,VWS V13.01,2013-02-13 13:13:00,
2013-02-13 09:14:00,23.9,19.8,29.85,WNW,292,0.0,0.0,84,0.00,,,0.00,,VWS V13.01,2013-02-13 13:14:00,
2013-02-13 09:15:00,23.9,19.8,29.85,WNW,292,0.0,0.0,84,0.00,,,0.00,,VWS V13.01,2013-02-13 13:15:00,
2013-02-13 09:16:00,23.9,19.8,29.85,WNW,292,0.0,0.0,84,0.00,,,0.00,,VWS V13.01,2013-02-13 13:16:00,
2013-02-13 09:18:00,23.9,19.8,29.85,WNW,292,0.0,0.0,84,0.00,,,0.00,,VWS V13.01,2013-02-13 13:18:00,
2013-02-13 09:19:00,23.9,19.8,29.85,WNW,292,0.0,0.0,84,0.00,,,0.00,,VWS V13.01,2013-02-13 13:19:00,
2013-02-13 09:20:00,23.9,19.8,29.85,WNW,292,0.0,0.0,84,0.00,,,0.00,,VWS V13.01,2013-02-13 13:20:00,
2013-02-13 09:21:00,23.8,19.7,29.85,WNW,292,0.0,0.0,84,0.00,,,0.00,,VWS V13.01,2013-02-13 13:21:00,
2013-02-13 09:24:00,23.9,19.8,29.85,WNW,292,0.0,0.0,84,0.00,,,0.00,,VWS V13.01,2013-02-13 13:24:00,
2013-02-13 09:25:00,23.9,19.8,29.85,WNW,292,0.0,0.0,84,0.00,,,0.00,,VWS V13.01,2013-02-13 13:25:00,
2013-02-13 09:26:00,23.9,19.8,29.85,WNW,292,0.0,0.0,84,0.00,,,0.00,,VWS V13.01,2013-02-13 13:26:00,
2013-02-13 09:29:00,23.9,19.8,29.85,WNW,292,0.0,0.0,84,0.00,,,0.00,,VWS V13.01,2013-02-13 13:29:00,
2013-02-13 09:30:00,23.9,19.8,29.85,WNW,292,0.0,0.0,84,0.00,,,0.00,,VWS V13.01,2013-02-13 13:30:00,
2013-02-13 09:31:00,23.8,19.7,29.85,WNW,292,0.0,0.0,84,0.00,,,0.00,,VWS V13.01,2013-02-13 13:31:00,
2013-02-13 09:34:00,23.9,19.8,29.85,WNW,285,0.0,0.0,84,0.00,,,0.00,,VWS V13.01,2013-02-13 13:34:00,
2013-02-13 09:35:00,23.9,19.8,29.85,WNW,292,0.0,0.0,84,0.00,,,0.00,,VWS V13.01,2013-02-13 13:35:00,
2013-02-13 09:36:00,23.8,19.7,29.85,WNW,292,0.0,0.0,84,0.00,,,0.00,,VWS V13.01,2013-02-13 13:36:00,
2013-02-13 09:39:00,23.8,19.7,29.85,WNW,292,0.0,0.0,84,0.00,,,0.00,,VWS V13.01,2013-02-13 13:39:00,
2013-02-13 09:40:00,23.9,19.8,29.85,WNW,292,0.0,0.0,84,0.00,,,0.00,,VWS V13.01,2013-02-13 13:40:00,
2013-02-13 09:41:00,23.9,19.8,29.85,WNW,292,0.0,0.0,84,0.00,,,0.00,,VWS V13.01,2013-02-13 13:41:00,
2013-02-13 09:44:00,23.9,19.8,29.85,WNW,292,0.0,0.0,84,0.00,,,0.00,,VWS V13.01,2013-02-13 13:44:00,
2013-02-13 09:45:00,23.9,19.8,29.85,WNW,292,0.0,0.0,84,0.00,,,0.00,,VWS V13.01,2013-02-13 13:45:00,
2013-02-13 09:46:00,24.1,20.0,29.85,WNW,292,0.0,0.0,84,0.00,,,0.00,,VWS V13.01,2013-02-13 13:46:00,
2013-02-13 09:47:00,23.9,19.8,29.85,WNW,292,0.0,0.0,84,0.00,,,0.00,,VWS V13.01,2013-02-13 13:47:00,
2013-02-13 09:49:00,24.1,20.0,29.85,WNW,292,0.0,0.0,84,0.00,,,0.00,,VWS V13.01,2013-02-13 13:49:00,
2013-02-13 09:50:00,24.1,20.2,29.85,WNW,292,0.0,0.0,85,0.00,,,0.00,,VWS V13.01,2013-02-13 13:50:00,
2013-02-13 09:51:00,24.1,20.2,29.85,WNW,292,0.0,0.0,85,0.00,,,0.00,,VWS V13.01,2013-02-13 13:51:00,
2013-02-13 09:52:00,24.1,20.2,29.85,WNW,292,0.0,0.0,85,0.00,,,0.00,,VWS V13.01,2013-02-13 13:52:00,
2013-02-13 09:55:00,24.2,20.4,29.85,WNW,292,0.0,0.0,85,0.00,,,0.00,,VWS V13.01,2013-02-13 13:55:00,
2013-02-13 09:56:00,24.4,20.5,29.85,WNW,292,0.0,0.0,85,0.00,,,0.00,,VWS V13.01,2013-02-13 13:56:00,
2013-02-13 09:57:00,24.4,20.5,29.85,WNW,292,0.0,0.0,85,0.00,,,0.00,,VWS V13.01,2013-02-13 13:57:00,
2013-02-13 10:00:00,24.4,20.5,29.85,WNW,292,0.0,0.0,85,0.00,,,0.00,,VWS V13.01,2013-02-13 14:00:00,
2013-02-13 10:01:00,24.5,20.6,29.85,WNW,292,0.0,0.0,85,0.00,,,0.00,,VWS V13.01,2013-02-13 14:01:00,
2013-02-13 10:02:00,24.7,20.8,29.85,WNW,292,0.0,0.0,85,0.00,,,0.00,,VWS V13.01,2013-02-13 14:02:00,
2013-02-13 10:05:00,24.7,20.8,29.85,WNW,292,0.0,0.0,85,0.00,,,0.00,,VWS V13.01,2013-02-13 14:05:00,
2013-02-13 10:06:00,24.8,20.9,29.85,WNW,292,0.0,0.0,85,0.00,,,0.00,,VWS V13.01,2013-02-13 14:06:00,
2013-02-13 10:07:00,24.8,20.9,29.85,WNW,292,0.0,0.0,85,0.00,,,0.00,,VWS V13.01,2013-02-13 14:07:00,
2013-02-13 10:10:00,25.0,21.1,29.85,WNW,292,0.0,0.0,85,0.00,,,0.00,,VWS V13.01,2013-02-13 14:10:00,
2013-02-13 10:11:00,25.1,21.2,29.85,WNW,292,0.0,0.0,85,0.00,,,0.00,,VWS V13.01,2013-02-13 14:11:00,
2013-02-13 10:12:00,25.3,21.4,29.85,WNW,292,0.0,0.0,85,0.00,,,0.00,,VWS V13.01,2013-02-13 14:12:00,
2013-02-13 10:15:00,25.6,21.7,29.85,WNW,292,0.0,0.0,85,0.00,,,0.00,,VWS V13.01,2013-02-13 14:15:00,
2013-02-13 10:16:00,25.6,21.7,29.86,WNW,292,0.0,0.0,85,0.00,,,0.00,,VWS V13.01,2013-02-13 14:16:00,
2013-02-13 10:17:00,25.6,21.7,29.86,WNW,289,2.0,2.0,85,0.00,,,0.00,,VWS V13.01,2013-02-13 14:17:00,
2013-02-13 10:21:00,26.0,22.1,29.86,WNW,285,0.0,4.0,85,0.00,,,0.00,,VWS V13.01,2013-02-13 14:21:00,
2013-02-13 10:22:00,26.1,22.2,29.86,WNW,285,0.0,0.0,85,0.00,,,0.00,,VWS V13.01,2013-02-13 14:22:00,
2013-02-13 10:23:00,26.1,22.2,29.86,WNW,285,0.0,0.0,85,0.00,,,0.00,,VWS V13.01,2013-02-13 14:23:00,
2013-02-13 10:26:00,26.4,22.5,29.86,West,277,8.0,12.0,85,0.00,,,0.00,,VWS V13.01,2013-02-13 14:26:00,
2013-02-13 10:27:00,26.4,22.2,29.86,West,277,8.0,12.0,84,0.00,,,0.00,,VWS V13.01,2013-02-13 14:27:00,
2013-02-13 10:28:00,26.6,22.4,29.86,West,277,4.0,10.0,84,0.00,,,0.00,,VWS V13.01,2013-02-13 14:28:00,
2013-02-13 10:30:00,31.5,24.5,29.84,West,277,0.0,0.0,75,0.00,,SCT055,0.00,65.00,VWS V14.01,2013-02-13 14:30:00,
2013-02-13 10:31:00,26.7,22.5,29.85,West,277,0.0,0.0,84,0.00,,,0.00,,VWS V13.01,2013-02-13 14:31:00,
2013-02-13 10:32:00,26.9,22.7,29.85,SW,232,0.0,0.0,84,0.00,,,0.00,,VWS V13.01,2013-02-13 14:32:00,
2013-02-13 10:33:00,26.9,22.7,29.85,SW,232,0.0,0.0,84,0.00,,,0.00,,VWS V13.01,2013-02-13 14:33:00,
2013-02-13 10:36:00,27.0,22.5,29.85,SW,232,0.0,0.0,83,0.00,,,0.00,,VWS V13.01,2013-02-13 14:36:00,
2013-02-13 10:37:00,27.2,22.7,29.85,SW,234,0.0,0.0,83,0.00,,,0.00,,VWS V13.01,2013-02-13 14:37:00,
2013-02-13 10:38:00,27.2,22.7,29.85,WSW,257,4.0,4.0,83,0.00,,,0.00,,VWS V13.01,2013-02-13 14:38:00,
2013-02-13 10:41:00,27.5,23.0,29.85,WSW,257,0.0,0.0,83,0.00,,,0.00,,VWS V13.01,2013-02-13 14:41:00,
2013-02-13 10:42:00,27.5,23.0,29.85,WSW,257,0.0,0.0,83,0.00,,,0.00,,VWS V13.01,2013-02-13 14:42:00,
2013-02-13 10:43:00,27.5,23.0,29.85,SW,227,0.0,6.0,83,0.00,,,0.00,,VWS V13.01,2013-02-13 14:43:00,
2013-02-13 10:46:00,27.8,23.0,29.85,SW,229,0.0,4.0,82,0.00,,,0.00,,VWS V13.01,2013-02-13 14:46:00,
2013-02-13 10:47:00,27.8,23.0,29.85,SW,229,0.0,4.0,82,0.00,,,0.00,,VWS V13.01,2013-02-13 14:47:00,
2013-02-13 10:48:00,27.9,23.1,29.85,SW,229,0.0,2.0,82,0.00,,,0.00,,VWS V13.01,2013-02-13 14:48:00,
2013-02-13 10:51:00,28.2,23.4,29.85,SW,232,0.0,2.0,82,0.00,,,0.00,,VWS V13.01,2013-02-13 14:51:00,
2013-02-13 10:52:00,28.2,23.4,29.85,SW,232,0.0,0.0,82,0.00,,,0.00,,VWS V13.01,2013-02-13 14:52:00,
2013-02-13 10:53:00,28.4,23.6,29.85,SW,232,0.0,0.0,82,0.00,,,0.00,,VWS V13.01,2013-02-13 14:53:00,
2013-02-13 10:54:00,28.4,23.6,29.85,SW,232,0.0,0.0,82,0.00,,,0.00,,VWS V13.01,2013-02-13 14:54:00,
2013-02-13 10:56:00,28.7,23.9,29.85,SW,232,0.0,0.0,82,0.00,,,0.00,,VWS V13.01,2013-02-13 14:56:00,
2013-02-13 10:57:00,28.7,23.9,29.85,SW,232,2.0,2.0,82,0.00,,,0.00,,VWS V13.01,2013-02-13 14:57:00,
2013-02-13 10:58:00,28.8,24.0,29.85,WSW,256,6.0,6.0,82,0.00,,,0.00,,VWS V13.01,2013-02-13 14:58:00,
2013-02-13 11:00:00,29.0,23.9,29.85,WSW,256,0.0,6.0,81,0.00,,,0.00,,VWS V13.01,2013-02-13 15:00:00,
2013-02-13 11:02:00,29.3,24.2,29.85,WSW,256,0.0,0.0,81,0.00,,,0.00,,VWS V13.01,2013-02-13 15:02:00,
2013-02-13 11:04:00,29.5,24.4,29.85,WSW,256,0.0,0.0,81,0.00,,,0.00,,VWS V13.01,2013-02-13 15:04:00,
2013-02-13 11:05:00,29.7,24.6,29.85,NNW,340,0.0,6.0,81,0.00,,,0.00,,VWS V13.01,2013-02-13 15:05:00,
2013-02-13 11:07:00,29.8,24.4,29.85,NW,319,0.0,4.0,80,0.00,,,0.00,,VWS V13.01,2013-02-13 15:07:00,
2013-02-13 11:09:00,30.1,24.4,29.85,WSW,256,0.0,4.0,79,0.00,,,0.00,,VWS V13.01,2013-02-13 15:09:00,
2013-02-13 11:10:00,30.3,24.6,29.85,WNW,301,2.0,10.0,79,0.00,,,0.00,,VWS V13.01,2013-02-13 15:10:00,
2013-02-13 11:12:00,30.4,24.7,29.85,West,277,0.0,10.0,79,0.00,,,0.00,,VWS V13.01,2013-02-13 15:12:00,
2013-02-13 11:14:00,30.6,24.6,29.85,West,278,0.0,0.0,78,0.00,,,0.00,,VWS V13.01,2013-02-13 15:14:00,
2013-02-13 11:15:00,30.6,24.6,29.85,West,278,0.0,0.0,78,0.00,,,0.00,,VWS V13.01,2013-02-13 15:15:00,
2013-02-13 11:17:00,30.7,24.7,29.85,WNW,282,4.0,8.0,78,0.00,,,0.00,,VWS V13.01,2013-02-13 15:17:00,
2013-02-13 11:18:00,30.7,24.4,29.85,West,274,0.0,8.0,77,0.00,,,0.00,,VWS V13.01,2013-02-13 15:18:00,
2013-02-13 11:19:00,30.9,24.5,29.85,West,274,0.0,4.0,77,0.00,,,0.00,,VWS V13.01,2013-02-13 15:19:00,
2013-02-13 11:21:00,31.0,24.6,29.85,West,274,0.0,0.0,77,0.00,,,0.00,,VWS V13.01,2013-02-13 15:21:00,
2013-02-13 11:22:00,31.0,24.3,29.85,West,274,0.0,0.0,76,0.00,,,0.00,,VWS V13.01,2013-02-13 15:22:00,
2013-02-13 11:23:00,31.2,24.5,29.85,West,274,0.0,0.0,76,0.00,,,0.00,,VWS V13.01,2013-02-13 15:23:00,
2013-02-13 11:24:00,31.2,24.5,29.85,West,274,0.0,0.0,76,0.00,,,0.00,,VWS V13.01,2013-02-13 15:24:00,
2013-02-13 11:26:00,31.2,24.5,29.85,West,277,2.0,6.0,76,0.00,,,0.00,,VWS V13.01,2013-02-13 15:26:00,
2013-02-13 11:27:00,31.3,24.3,29.85,West,277,0.0,4.0,75,0.00,,,0.00,,VWS V13.01,2013-02-13 15:27:00,
2013-02-13 11:28:00,31.3,24.3,29.85,West,277,0.0,0.0,75,0.00,,,0.00,,VWS V13.01,2013-02-13 15:28:00,
2013-02-13 11:29:00,31.3,24.3,29.85,West,277,0.0,0.0,75,0.00,,,0.00,,VWS V13.01,2013-02-13 15:29:00,
2013-02-13 11:30:00,36.0,26.8,29.82,SW,222,0.0,6.0,69,0.00,,SCT055,0.00,116.00,VWS V14.01,2013-02-13 15:30:00,
2013-02-13 11:31:00,31.5,24.5,29.84,West,277,0.0,0.0,75,0.00,,,0.00,,VWS V13.01,2013-02-13 15:31:00,
2013-02-13 11:33:00,31.5,24.5,29.84,West,277,0.0,0.0,75,0.00,,,0.00,,VWS V13.01,2013-02-13 15:33:00,
2013-02-13 11:34:00,31.6,24.6,29.84,West,277,0.0,0.0,75,0.00,,,0.00,,VWS V13.01,2013-02-13 15:34:00,
2013-02-13 11:36:00,31.6,24.6,29.84,West,277,0.0,0.0,75,0.00,,,0.00,,VWS V13.01,2013-02-13 15:36:00,
2013-02-13 11:38:00,31.6,24.6,29.84,West,275,0.0,0.0,75,0.00,,,0.00,,VWS V13.01,2013-02-13 15:38:00,
2013-02-13 11:39:00,31.6,24.6,29.84,West,277,0.0,0.0,75,0.00,,,0.00,,VWS V13.01,2013-02-13 15:39:00,
2013-02-13 11:41:00,31.8,24.5,29.84,West,277,0.0,0.0,74,0.00,,,0.00,,VWS V13.01,2013-02-13 15:41:00,
2013-02-13 11:43:00,31.8,24.5,29.84,West,277,0.0,0.0,74,0.00,,,0.00,,VWS V13.01,2013-02-13 15:43:00,
2013-02-13 11:44:00,31.9,24.6,29.84,West,275,0.0,0.0,74,0.00,,,0.00,,VWS V13.01,2013-02-13 15:44:00,
2013-02-13 11:45:00,31.9,24.6,29.84,West,277,0.0,0.0,74,0.00,,,0.00,,VWS V13.01,2013-02-13 15:45:00,
2013-02-13 11:46:00,31.9,24.6,29.84,WNW,289,0.0,10.0,74,0.00,,,0.00,,VWS V13.01,2013-02-13 15:46:00,
2013-02-13 11:48:00,32.1,24.8,29.84,WNW,289,0.0,4.0,74,0.00,,,0.00,,VWS V13.01,2013-02-13 15:48:00,
2013-02-13 11:49:00,32.1,24.8,29.84,WNW,289,0.0,0.0,74,0.00,,,0.00,,VWS V13.01,2013-02-13 15:49:00,
2013-02-13 11:50:00,32.2,24.9,29.84,WNW,289,0.0,4.0,74,0.00,,,0.00,,VWS V13.01,2013-02-13 15:50:00,
2013-02-13 11:52:00,32.2,24.9,29.84,West,271,0.0,4.0,74,0.00,,,0.00,,VWS V13.01,2013-02-13 15:52:00,
2013-02-13 11:53:00,32.4,25.0,29.84,West,281,4.0,6.0,74,0.00,,,0.00,,VWS V13.01,2013-02-13 15:53:00,
2013-02-13 11:54:00,32.4,25.0,29.84,West,281,0.0,6.0,74,0.00,,,0.00,,VWS V13.01,2013-02-13 15:54:00,
2013-02-13 11:55:00,32.5,24.8,29.84,West,281,0.0,6.0,73,0.00,,,0.00,,VWS V13.01,2013-02-13 15:55:00,
2013-02-13 11:57:00,32.5,24.8,29.84,West,275,0.0,8.0,73,0.00,,,0.00,,VWS V13.01,2013-02-13 15:57:00,
2013-02-13 11:58:00,32.7,25.0,29.84,West,275,0.0,4.0,73,0.00,,,0.00,,VWS V13.01,2013-02-13 15:58:00,
2013-02-13 11:59:00,32.7,25.0,29.84,WSW,258,4.0,4.0,73,0.00,,,0.00,,VWS V13.01,2013-02-13 15:59:00,
2013-02-13 12:00:00,32.7,25.0,29.84,WSW,258,2.0,6.0,73,0.00,,,0.00,,VWS V13.01,2013-02-13 16:00:00,
2013-02-13 12:02:00,32.9,25.2,29.84,WSW,258,0.0,0.0,73,0.00,,,0.00,,VWS V13.01,2013-02-13 16:02:00,
2013-02-13 12:04:00,33.1,25.4,29.84,WSW,258,0.0,0.0,73,0.00,,,0.00,,VWS V13.01,2013-02-13 16:04:00,
2013-02-13 12:05:00,33.1,25.4,29.84,WSW,258,0.0,0.0,73,0.00,,,0.00,,VWS V13.01,2013-02-13 16:05:00,
2013-02-13 12:07:00,33.4,25.7,29.84,WSW,246,0.0,0.0,73,0.00,,,0.00,,VWS V13.01,2013-02-13 16:07:00,
2013-02-13 12:09:00,33.5,25.8,29.84,WSW,246,0.0,0.0,73,0.00,,,0.00,,VWS V13.01,2013-02-13 16:09:00,
2013-02-13 12:10:00,33.5,25.8,29.84,WSW,246,0.0,0.0,73,0.00,,,0.00,,VWS V13.01,2013-02-13 16:10:00,
2013-02-13 12:12:00,33.8,25.7,29.84,SSE,157,0.0,8.0,72,0.00,,,0.00,,VWS V13.01,2013-02-13 16:12:00,
2013-02-13 12:15:00,34.1,26.0,29.84,SSE,157,0.0,10.0,72,0.00,,,0.00,,VWS V13.01,2013-02-13 16:15:00,
2013-02-13 12:18:00,34.6,26.5,29.83,SSE,165,0.0,4.0,72,0.00,,,0.00,,VWS V13.01,2013-02-13 16:18:00,
2013-02-13 12:20:00,34.9,26.5,29.83,SSE,165,2.0,4.0,71,0.00,,,0.00,,VWS V13.01,2013-02-13 16:20:00,
2013-02-13 12:23:00,35.2,26.4,29.83,SSE,167,0.0,4.0,70,0.00,,,0.00,,VWS V13.01,2013-02-13 16:23:00,
2013-02-13 12:25:00,35.3,26.5,29.83,SSE,165,0.0,4.0,70,0.00,,,0.00,,VWS V13.01,2013-02-13 16:25:00,
2013-02-13 12:26:00,35.5,26.4,29.83,SSE,165,2.0,2.0,69,0.00,,,0.00,,VWS V13.01,2013-02-13 16:26:00,
2013-02-13 12:28:00,35.6,26.5,29.83,SW,222,0.0,6.0,69,0.00,,,0.00,,VWS V13.01,2013-02-13 16:28:00,
2013-02-13 12:30:00,35.9,26.7,29.83,SW,222,4.0,6.0,69,0.00,,,0.00,,VWS V13.01,2013-02-13 16:30:00,
2013-02-13 12:32:00,36.2,26.7,29.82,SW,223,6.0,6.0,68,0.00,,,0.00,,VWS V13.01,2013-02-13 16:32:00,
2013-02-13 12:34:00,36.5,27.0,29.82,SW,222,0.0,6.0,68,0.00,,,0.00,,VWS V13.01,2013-02-13 16:34:00,
2013-02-13 12:35:00,36.5,26.6,29.82,SW,222,0.0,0.0,67,0.00,,,0.00,,VWS V13.01,2013-02-13 16:35:00,
2013-02-13 12:36:00,36.6,26.7,29.82,SW,223,0.0,0.0,67,0.00,,,0.00,,VWS V13.01,2013-02-13 16:36:00,
2013-02-13 12:38:00,36.8,26.9,29.82,SSE,167,4.0,6.0,67,0.00,,,0.00,,VWS V13.01,2013-02-13 16:38:00,
2013-02-13 12:40:00,37.0,27.1,29.82,SSW,195,2.0,6.0,67,0.00,,,0.00,,VWS V13.01,2013-02-13 16:40:00,
2013-02-13 12:41:00,37.2,26.9,29.82,SSW,195,0.0,6.0,66,0.00,,,0.00,,VWS V13.01,2013-02-13 16:41:00,
2013-02-13 12:43:00,37.5,27.2,29.82,SSW,195,2.0,2.0,66,0.00,,,0.00,,VWS V13.01,2013-02-13 16:43:00,
2013-02-13 12:45:00,37.6,27.3,29.82,SSW,195,0.0,10.0,66,0.00,,,0.00,,VWS V13.01,2013-02-13 16:45:00,
2013-02-13 12:46:00,37.8,27.5,29.82,SSW,195,2.0,6.0,66,0.00,,,0.00,,VWS V13.01,2013-02-13 16:46:00,
2013-02-13 12:49:00,38.2,27.5,29.82,SSW,195,0.0,6.0,65,0.00,,,0.00,,VWS V13.01,2013-02-13 16:49:00,
2013-02-13 12:50:00,38.3,27.6,29.82,SSW,195,0.0,4.0,65,0.00,,,0.00,,VWS V13.01,2013-02-13 16:50:00,
2013-02-13 12:51:00,38.6,27.5,29.82,SW,215,2.0,12.0,64,0.00,,,0.00,,VWS V13.01,2013-02-13 16:51:00,
2013-02-13 12:54:00,39.1,27.2,29.82,SW,219,6.0,6.0,62,0.00,,,0.00,,VWS V13.01,2013-02-13 16:54:00,
2013-02-13 12:55:00,39.1,27.2,29.82,SW,219,0.0,6.0,62,0.00,,,0.00,,VWS V13.01,2013-02-13 16:55:00,
2013-02-13 12:56:00,39.3,27.4,29.82,SW,219,4.0,4.0,62,0.00,,,0.00,,VWS V13.01,2013-02-13 16:56:00,
2013-02-13 12:57:00,39.3,27.4,29.82,SW,219,10.0,10.0,62,0.00,,,0.00,,VWS V13.01,2013-02-13 16:57:00,
2013-02-13 13:00:00,39.8,27.5,29.82,SW,226,4.0,8.0,61,0.00,,,0.00,,VWS V13.01,2013-02-13 17:00:00,
2013-02-13 13:01:00,40.1,27.8,29.82,SSE,161,0.0,8.0,61,0.00,,,0.00,,VWS V13.01,2013-02-13 17:01:00,
2013-02-13 13:02:00,40.2,27.8,29.82,SSE,161,0.0,8.0,61,0.00,,,0.00,,VWS V13.01,2013-02-13 17:02:00,
2013-02-13 13:05:00,40.8,27.6,29.82,SW,219,2.0,4.0,59,0.00,,,0.00,,VWS V13.01,2013-02-13 17:05:00,
2013-02-13 13:06:00,40.8,27.6,29.82,SW,219,2.0,6.0,59,0.00,,,0.00,,VWS V13.01,2013-02-13 17:06:00,
2013-02-13 13:07:00,41.1,27.9,29.82,SW,219,0.0,6.0,59,0.00,,,0.00,,VWS V13.01,2013-02-13 17:07:00,
2013-02-13 13:10:00,41.5,27.8,29.82,WSW,240,12.0,14.0,58,0.00,,,0.00,,VWS V13.01,2013-02-13 17:10:00,
2013-02-13 13:11:00,41.6,27.5,29.82,WSW,250,12.0,14.0,57,0.00,,,0.00,,VWS V13.01,2013-02-13 17:11:00,
2013-02-13 13:12:00,41.8,27.7,29.82,SW,220,4.0,12.0,57,0.00,,,0.00,,VWS V13.01,2013-02-13 17:12:00,
2013-02-13 13:16:00,42.2,28.1,29.81,WNW,282,0.0,6.0,57,0.00,,,0.00,,VWS V13.01,2013-02-13 17:16:00,
2013-02-13 13:17:00,42.2,28.1,29.81,West,264,0.0,4.0,57,0.00,,,0.00,,VWS V13.01,2013-02-13 17:17:00,
2013-02-13 13:21:00,43.1,28.5,29.81,South,185,10.0,10.0,56,0.00,,,0.00,,VWS V13.01,2013-02-13 17:21:00,
2013-02-13 13:22:00,43.2,28.1,29.81,SW,223,0.0,10.0,55,0.00,,,0.00,,VWS V13.01,2013-02-13 17:22:00,
2013-02-13 13:26:00,43.9,28.4,29.81,SW,223,6.0,14.0,54,0.00,,,0.00,,VWS V13.01,2013-02-13 17:26:00,
2013-02-13 13:27:00,43.9,27.9,29.81,SW,222,2.0,14.0,53,0.00,,,0.00,,VWS V13.01,2013-02-13 17:27:00,
2013-02-13 13:28:00,44.1,28.1,29.81,SW,217,0.0,8.0,53,0.00,,,0.00,,VWS V13.01,2013-02-13 17:28:00,
2013-02-13 13:30:00,49.9,27.2,29.77,WSW,240,10.0,22.0,41,0.00,,SCT055,0.00,574.00,VWS V14.01,2013-02-13 17:30:00,
2013-02-13 13:31:00,44.6,28.5,29.81,SW,217,2.0,4.0,53,0.00,,,0.00,,VWS V13.01,2013-02-13 17:31:00,
2013-02-13 13:32:00,44.6,28.5,29.81,SW,217,0.0,4.0,53,0.00,,,0.00,,VWS V13.01,2013-02-13 17:32:00,
2013-02-13 13:33:00,44.9,28.8,29.81,SW,226,10.0,10.0,53,0.00,,,0.00,,VWS V13.01,2013-02-13 17:33:00,
2013-02-13 13:37:00,45.4,28.4,29.81,SW,236,4.0,10.0,51,0.00,,,0.00,,VWS V13.01,2013-02-13 17:37:00,
2013-02-13 13:38:00,45.7,28.6,29.81,SSW,196,4.0,10.0,51,0.00,,,0.00,,VWS V13.01,2013-02-13 17:38:00,
2013-02-13 13:39:00,45.7,28.6,29.81,West,260,10.0,10.0,51,0.00,,,0.00,,VWS V13.01,2013-02-13 17:39:00,
2013-02-13 13:42:00,46.1,28.5,29.81,West,271,8.0,12.0,50,0.00,,,0.00,,VWS V13.01,2013-02-13 17:42:00,
2013-02-13 13:43:00,46.2,28.1,29.81,WSW,241,4.0,12.0,49,0.00,,,0.00,,VWS V13.01,2013-02-13 17:43:00,
2013-02-13 13:44:00,46.2,28.1,29.81,SW,217,6.0,12.0,49,0.00,,,0.00,,VWS V13.01,2013-02-13 17:44:00,
2013-02-13 13:47:00,46.7,28.6,29.80,SW,223,0.0,6.0,49,0.00,,,0.00,,VWS V13.01,2013-02-13 17:47:00,
2013-02-13 13:48:00,46.7,28.6,29.80,SSW,210,2.0,6.0,49,0.00,,,0.00,,VWS V13.01,2013-02-13 17:48:00,
2013-02-13 13:49:00,46.8,28.7,29.80,SSW,213,0.0,2.0,49,0.00,,,0.00,,VWS V13.01,2013-02-13 17:49:00,
2013-02-13 13:52:00,47.1,27.9,29.80,West,263,12.0,20.0,47,0.00,,,0.00,,VWS V13.01,2013-02-13 17:52:00,
2013-02-13 13:53:00,47.1,27.9,29.80,WSW,258,12.0,20.0,47,0.00,,,0.00,,VWS V13.01,2013-02-13 17:53:00,
2013-02-13 13:54:00,47.1,27.9,29.80,WSW,257,2.0,22.0,47,0.00,,,0.00,,VWS V13.01,2013-02-13 17:54:00,
2013-02-13 13:58:00,47.4,28.2,29.80,WSW,241,4.0,10.0,47,0.00,,,0.00,,VWS V13.01,2013-02-13 17:58:00,
2013-02-13 13:59:00,47.6,28.4,29.80,SW,233,2.0,12.0,47,0.00,,,0.00,,VWS V13.01,2013-02-13 17:59:00,
2013-02-13 14:00:00,51.6,26.8,29.76,WSW,248,2.0,14.0,38,0.00,,SCT055,0.00,572.00,VWS V14.01,2013-02-13 18:00:00,
2013-02-13 14:03:00,47.9,28.1,29.79,West,274,6.0,12.0,46,0.00,,,0.00,,VWS V13.01,2013-02-13 18:03:00,
2013-02-13 14:04:00,48.0,28.2,29.79,SW,217,4.0,12.0,46,0.00,,,0.00,,VWS V13.01,2013-02-13 18:04:00,
2013-02-13 14:05:00,48.0,28.2,29.79,West,264,6.0,12.0,46,0.00,,,0.00,,VWS V13.01,2013-02-13 18:05:00,
2013-02-13 14:08:00,48.3,28.0,29.79,SSW,205,16.0,16.0,45,0.00,,,0.00,,VWS V13.01,2013-02-13 18:08:00,
2013-02-13 14:09:00,48.3,28.0,29.79,SW,226,6.0,16.0,45,0.00,,,0.00,,VWS V13.01,2013-02-13 18:09:00,
2013-02-13 14:10:00,48.3,28.0,29.79,SSE,162,4.0,16.0,45,0.00,,,0.00,,VWS V13.01,2013-02-13 18:10:00,
2013-02-13 14:13:00,48.8,27.9,29.79,SSW,206,4.0,12.0,44,0.00,,,0.00,,VWS V13.01,2013-02-13 18:13:00,
2013-02-13 14:14:00,48.9,28.0,29.79,SW,215,0.0,12.0,44,0.00,,,0.00,,VWS V13.01,2013-02-13 18:14:00,
2013-02-13 14:15:00,48.9,28.0,29.79,West,264,10.0,10.0,44,0.00,,,0.00,,VWS V13.01,2013-02-13 18:15:00,
2013-02-13 14:19:00,49.2,27.7,29.78,South,174,2.0,8.0,43,0.00,,,0.00,,VWS V13.01,2013-02-13 18:19:00,
2013-02-13 14:20:00,49.4,27.9,29.78,SW,222,8.0,8.0,43,0.00,,,0.00,,VWS V13.01,2013-02-13 18:20:00,
2013-02-13 14:24:00,49.6,27.5,29.78,West,268,2.0,14.0,42,0.00,,,0.00,,VWS V13.01,2013-02-13 18:24:00,
2013-02-13 14:25:00,49.8,27.6,29.78,SSW,212,2.0,12.0,42,0.00,,,0.00,,VWS V13.01,2013-02-13 18:25:00,
2013-02-13 14:29:00,50.1,27.9,29.78,SW,226,8.0,12.0,42,0.00,,,0.00,,VWS V13.01,2013-02-13 18:29:00,
2013-02-13 14:30:00,50.1,27.9,29.78,WSW,240,12.0,12.0,42,0.00,,,0.00,,VWS V13.01,2013-02-13 18:30:00,
2013-02-13 14:31:00,50.1,26.7,29.77,WNW,287,10.0,22.0,40,0.00,,,0.00,,VWS V13.01,2013-02-13 18:31:00,
2013-02-13 14:35:00,49.8,27.6,29.77,SW,233,2.0,12.0,42,0.00,,,0.00,,VWS V13.01,2013-02-13 18:35:00,
2013-02-13 14:36:00,49.9,28.3,29.77,SSW,208,0.0,12.0,43,0.00,,,0.00,,VWS V13.01,2013-02-13 18:36:00,
2013-02-13 14:40:00,50.1,27.3,29.77,West,271,12.0,14.0,41,0.00,,,0.00,,VWS V13.01,2013-02-13 18:40:00,
2013-02-13 14:41:00,50.1,27.9,29.77,WSW,241,4.0,12.0,42,0.00,,,0.00,,VWS V13.01,2013-02-13 18:41:00,
2013-02-13 14:45:00,50.2,28.0,29.77,WSW,257,0.0,10.0,42,0.00,,,0.00,,VWS V13.01,2013-02-13 18:45:00,
2013-02-13 14:46:00,50.2,28.0,29.76,WSW,253,6.0,8.0,42,0.00,,,0.00,,VWS V13.01,2013-02-13 18:46:00,
2013-02-13 14:50:00,50.7,27.9,29.76,West,275,0.0,8.0,41,0.00,,,0.00,,VWS V13.01,2013-02-13 18:50:00,
2013-02-13 14:51:00,50.7,27.9,29.76,West,275,0.0,6.0,41,0.00,,,0.00,,VWS V13.01,2013-02-13 18:51:00,
2013-02-13 14:52:00,50.8,28.0,29.76,WSW,251,8.0,8.0,41,0.00,,,0.00,,VWS V13.01,2013-02-13 18:52:00,
2013-02-13 14:56:00,51.3,27.8,29.76,SSW,192,4.0,14.0,40,0.00,,,0.00,,VWS V13.01,2013-02-13 18:56:00,
2013-02-13 15:00:00,52.6,27.1,29.74,WSW,239,10.0,12.0,37,0.00,,SCT055,0.00,49.00,VWS V14.01,2013-02-13 19:00:00,
2013-02-13 15:01:00,51.6,26.8,29.76,SW,219,10.0,14.0,38,0.00,,,0.00,,VWS V13.01,2013-02-13 19:01:00,
2013-02-13 15:02:00,51.6,26.8,29.76,SW,229,0.0,14.0,38,0.00,,,0.00,,VWS V13.01,2013-02-13 19:02:00,
2013-02-13 15:06:00,51.6,27.5,29.76,SW,224,2.0,14.0,39,0.00,,,0.00,,VWS V13.01,2013-02-13 19:06:00,
2013-02-13 15:07:00,51.6,27.5,29.76,SE,141,10.0,12.0,39,0.00,,,0.00,,VWS V13.01,2013-02-13 19:07:00,
2013-02-13 15:11:00,52.0,27.2,29.76,SW,229,0.0,6.0,38,0.00,,,0.00,,VWS V13.01,2013-02-13 19:11:00,
2013-02-13 15:12:00,52.2,27.4,29.76,SSW,193,6.0,14.0,38,0.00,,,0.00,,VWS V13.01,2013-02-13 19:12:00,
2013-02-13 15:16:00,52.5,27.0,29.75,SW,234,12.0,14.0,37,0.00,,,0.00,,VWS V13.01,2013-02-13 19:16:00,
2013-02-13 15:17:00,52.5,27.0,29.75,SW,219,10.0,14.0,37,0.00,,,0.00,,VWS V13.01,2013-02-13 19:17:00,
2013-02-13 15:21:00,52.5,27.0,29.75,WSW,246,4.0,8.0,37,0.00,,,0.00,,VWS V13.01,2013-02-13 19:21:00,
2013-02-13 15:22:00,52.5,27.0,29.75,WSW,246,0.0,8.0,37,0.00,,,0.00,,VWS V13.01,2013-02-13 19:22:00,
2013-02-13 15:26:00,52.8,27.3,29.75,SSE,160,4.0,14.0,37,0.00,,,0.00,,VWS V13.01,2013-02-13 19:26:00,
2013-02-13 15:27:00,52.8,27.3,29.75,SSE,167,2.0,14.0,37,0.00,,,0.00,,VWS V13.01,2013-02-13 19:27:00,
2013-02-13 15:28:00,52.8,27.3,29.75,South,174,4.0,12.0,37,0.00,,,0.00,,VWS V13.01,2013-02-13 19:28:00,
2013-02-13 15:30:00,53.2,24.9,29.73,NW,313,10.0,34.0,33,0.00,,SCT055,0.00,345.00,VWS V14.01,2013-02-13 19:30:00,
2013-02-13 15:31:00,53.1,27.5,29.75,South,181,4.0,12.0,37,0.00,,,0.00,,VWS V13.01,2013-02-13 19:31:00,
2013-02-13 15:32:00,53.2,27.6,29.75,South,181,2.0,8.0,37,0.00,,,0.00,,VWS V13.01,2013-02-13 19:32:00,
2013-02-13 15:33:00,53.2,27.6,29.75,SSE,168,2.0,8.0,37,0.00,,,0.00,,VWS V13.01,2013-02-13 19:33:00,
2013-02-13 15:36:00,53.3,26.4,29.75,SW,215,10.0,14.0,35,0.00,,,0.00,,VWS V13.01,2013-02-13 19:36:00,
2013-02-13 15:38:00,53.3,27.0,29.75,WSW,246,4.0,12.0,36,0.00,,,0.00,,VWS V13.01,2013-02-13 19:38:00,
2013-02-13 15:42:00,53.1,26.9,29.75,West,265,2.0,22.0,36,0.00,,,0.00,,VWS V13.01,2013-02-13 19:42:00,
2013-02-13 15:43:00,53.1,26.9,29.75,WSW,246,6.0,16.0,36,0.00,,,0.00,,VWS V13.01,2013-02-13 19:43:00,
2013-02-13 15:47:00,52.9,26.7,29.74,WSW,247,12.0,14.0,36,0.00,,,0.00,,VWS V13.01,2013-02-13 19:47:00,
2013-02-13 15:48:00,52.9,26.0,29.74,WNW,288,18.0,18.0,35,0.00,,,0.00,,VWS V13.01,2013-02-13 19:48:00,
2013-02-13 15:53:00,52.6,26.4,29.74,WNW,282,4.0,16.0,36,0.00,,,0.00,,VWS V13.01,2013-02-13 19:53:00,
2013-02-13 15:54:00,52.6,26.4,29.74,West,277,10.0,14.0,36,0.00,,,0.00,,VWS V13.01,2013-02-13 19:54:00,
2013-02-13 15:58:00,52.5,27.0,29.74,WSW,258,0.0,8.0,37,0.00,,,0.00,,VWS V13.01,2013-02-13 19:58:00,
2013-02-13 15:59:00,52.5,27.0,29.74,West,261,0.0,8.0,37,0.00,,,0.00,,VWS V13.01,2013-02-13 19:59:00,
2013-02-13 16:00:00,53.2,24.9,29.72,WSW,251,10.0,16.0,33,0.00,,SCT055,0.00,204.00,VWS V14.01,2013-02-13 20:00:00,
2013-02-13 16:03:00,52.8,27.3,29.74,West,272,10.0,14.0,37,0.00,,,0.00,,VWS V13.01,2013-02-13 20:03:00,
2013-02-13 16:04:00,52.8,27.3,29.74,WNW,285,2.0,14.0,37,0.00,,,0.00,,VWS V13.01,2013-02-13 20:04:00,
2013-02-13 16:05:00,52.8,27.3,29.74,SSW,205,10.0,12.0,37,0.00,,,0.00,,VWS V13.01,2013-02-13 20:05:00,
2013-02-13 16:08:00,52.8,27.3,29.74,SW,216,14.0,26.0,37,0.00,,,0.00,,VWS V13.01,2013-02-13 20:08:00,
2013-02-13 16:09:00,52.8,27.3,29.74,SE,141,2.0,26.0,37,0.00,,,0.00,,VWS V13.01,2013-02-13 20:09:00,
2013-02-13 16:10:00,52.8,27.3,29.74,SW,226,10.0,14.0,37,0.00,,,0.00,,VWS V13.01,2013-02-13 20:10:00,
2013-02-13 16:13:00,52.8,26.6,29.74,WNW,284,4.0,16.0,36,0.00,,,0.00,,VWS V13.01,2013-02-13 20:13:00,
2013-02-13 16:14:00,52.8,27.3,29.74,West,281,10.0,16.0,37,0.00,,,0.00,,VWS V13.01,2013-02-13 20:14:00,
2013-02-13 16:15:00,52.8,27.3,29.74,West,261,2.0,14.0,37,0.00,,,0.00,,VWS V13.01,2013-02-13 20:15:00,
2013-02-13 16:18:00,52.9,26.7,29.73,WNW,289,2.0,24.0,36,0.00,,,0.00,,VWS V13.01,2013-02-13 20:18:00,
2013-02-13 16:19:00,52.9,26.7,29.73,WNW,291,10.0,14.0,36,0.00,,,0.00,,VWS V13.01,2013-02-13 20:19:00,
2013-02-13 16:20:00,52.9,26.7,29.73,SSW,198,6.0,14.0,36,0.00,,,0.00,,VWS V13.01,2013-02-13 20:20:00,
2013-02-13 16:21:00,53.1,26.9,29.73,WNW,298,4.0,20.0,36,0.00,,,0.00,,VWS V13.01,2013-02-13 20:21:00,
2013-02-13 16:24:00,53.1,26.9,29.73,WSW,251,6.0,20.0,36,0.00,,,0.00,,VWS V13.01,2013-02-13 20:24:00,
2013-02-13 16:26:00,53.1,26.9,29.73,West,267,4.0,14.0,36,0.00,,,0.00,,VWS V13.01,2013-02-13 20:26:00,
2013-02-13 16:29:00,53.2,25.6,29.73,WNW,295,14.0,14.0,34,0.00,,,0.00,,VWS V13.01,2013-02-13 20:29:00,
2013-02-13 16:30:00,53.3,25.7,29.73,West,280,12.0,24.0,34,0.00,,,0.00,,VWS V13.01,2013-02-13 20:30:00,
2013-02-13 16:31:00,53.3,25.7,29.73,WNW,302,14.0,24.0,34,0.00,,,0.00,,VWS V13.01,2013-02-13 20:31:00,
2013-02-13 16:34:00,53.1,25.5,29.73,WSW,257,4.0,26.0,34,0.00,,,0.00,,VWS V13.01,2013-02-13 20:34:00,
2013-02-13 16:35:00,53.1,26.2,29.73,WSW,257,14.0,26.0,35,0.00,,,0.00,,VWS V13.01,2013-02-13 20:35:00,
2013-02-13 16:36:00,53.1,25.5,29.73,WSW,237,14.0,26.0,34,0.00,,,0.00,,VWS V13.01,2013-02-13 20:36:00,
2013-02-13 16:37:00,53.1,25.5,29.73,SSW,212,2.0,26.0,34,0.00,,,0.00,,VWS V13.01,2013-02-13 20:37:00,
2013-02-13 16:40:00,53.2,25.6,29.73,SW,223,6.0,28.0,34,0.00,,,0.00,,VWS V13.01,2013-02-13 20:40:00,
2013-02-13 16:41:00,53.1,25.5,29.73,West,280,22.0,28.0,34,0.00,,,0.00,,VWS V13.01,2013-02-13 20:41:00,
2013-02-13 16:42:00,53.1,25.5,29.73,WNW,287,10.0,22.0,34,0.00,,,0.00,,VWS V13.01,2013-02-13 20:42:00,
2013-02-13 16:45:00,53.1,25.5,29.73,West,268,16.0,32.0,34,0.00,,,0.00,,VWS V13.01,2013-02-13 20:45:00,
2013-02-13 16:46:00,53.1,24.8,29.73,West,274,14.0,32.0,33,0.00,,,0.00,,VWS V13.01,2013-02-13 20:46:00,
2013-02-13 16:47:00,53.1,24.8,29.73,WSW,257,6.0,22.0,33,0.00,,,0.00,,VWS V13.01,2013-02-13 20:47:00,
2013-02-13 16:50:00,53.1,24.8,29.73,NW,306,10.0,24.0,33,0.00,,,0.00,,VWS V13.01,2013-02-13 20:50:00,
2013-02-13 16:52:00,52.9,24.6,29.73,WNW,288,4.0,24.0,33,0.00,,,0.00,,VWS V13.01,2013-02-13 20:52:00,
2013-02-13 16:55:00,52.9,24.6,29.73,SW,232,10.0,14.0,33,0.00,,,0.00,,VWS V13.01,2013-02-13 20:55:00,
2013-02-13 16:57:00,52.9,25.3,29.73,WNW,294,4.0,14.0,34,0.00,,,0.00,,VWS V13.01,2013-02-13 20:57:00,
2013-02-13 16:58:00,52.9,25.3,29.73,WNW,298,10.0,10.0,34,0.00,,,0.00,,VWS V13.01,2013-02-13 20:58:00,
2013-02-13 17:00:00,53.1,24.8,29.72,NW,308,8.0,12.0,33,0.00,,,0.00,,VWS V13.01,2013-02-13 21:00:00,
2013-02-13 17:01:00,53.1,24.8,29.72,NW,308,4.0,12.0,33,0.00,,,0.00,,VWS V13.01,2013-02-13 21:01:00,
2013-02-13 17:02:00,53.2,24.9,29.72,WSW,253,12.0,20.0,33,0.00,,,0.00,,VWS V13.01,2013-02-13 21:02:00,
2013-02-13 17:03:00,53.2,24.9,29.72,NW,311,14.0,20.0,33,0.00,,,0.00,,VWS V13.01,2013-02-13 21:03:00,
2013-02-13 17:06:00,53.3,24.2,29.72,NW,309,24.0,24.0,32,0.00,,,0.00,,VWS V13.01,2013-02-13 21:06:00,
2013-02-13 17:08:00,53.2,24.1,29.72,NW,309,16.0,32.0,32,0.00,,,0.00,,VWS V13.01,2013-02-13 21:08:00,
2013-02-13 17:11:00,53.1,23.3,29.72,NW,309,20.0,26.0,31,0.00,,,0.00,,VWS V13.01,2013-02-13 21:11:00,
2013-02-13 17:13:00,53.1,24.0,29.72,WNW,291,12.0,20.0,32,0.00,,,0.00,,VWS V13.01,2013-02-13 21:13:00,
2013-02-13 17:16:00,53.1,24.0,29.71,WSW,241,4.0,14.0,32,0.00,,,0.00,,VWS V13.01,2013-02-13 21:16:00,
2013-02-13 17:18:00,53.1,24.0,29.71,SSW,206,12.0,14.0,32,0.00,,,0.00,,VWS V13.01,2013-02-13 21:18:00,
2013-02-13 17:21:00,53.2,24.1,29.71,West,261,4.0,10.0,32,0.00,,,0.00,,VWS V13.01,2013-02-13 21:21:00,
2013-02-13 17:23:00,53.2,23.4,29.71,WNW,301,20.0,20.0,31,0.00,,,0.00,,VWS V13.01,2013-02-13 21:23:00,
2013-02-13 17:24:00,53.2,23.4,29.71,WNW,289,22.0,24.0,31,0.00,,,0.00,,VWS V13.01,2013-02-13 21:24:00,
2013-02-13 17:26:00,53.3,23.5,29.71,West,260,4.0,16.0,31,0.00,,,0.00,,VWS V13.01,2013-02-13 21:26:00,
2013-02-13 17:27:00,53.3,23.5,29.71,WSW,250,6.0,16.0,31,0.00,,,0.00,,VWS V13.01,2013-02-13 21:27:00,
2013-02-13 17:28:00,53.3,23.5,29.71,West,263,4.0,12.0,31,0.00,,,0.00,,VWS V13.01,2013-02-13 21:28:00,
2013-02-13 17:29:00,53.3,23.5,29.71,NNW,335,16.0,18.0,31,0.00,,,0.00,,VWS V13.01,2013-02-13 21:29:00,
2013-02-13 17:30:00,52.9,23.9,29.71,WNW,302,12.0,14.0,32,0.00,,SCT055,0.00,93.00,VWS V14.01,2013-02-13 21:30:00,
2013-02-13 17:31:00,53.3,23.5,29.71,WNW,294,14.0,20.0,31,0.00,,,0.00,,VWS V13.01,2013-02-13 21:31:00,
2013-02-13 17:32:00,53.3,23.5,29.71,WNW,289,24.0,24.0,31,0.00,,,0.00,,VWS V13.01,2013-02-13 21:32:00,
2013-02-13 17:34:00,53.3,23.5,29.71,WNW,284,12.0,24.0,31,0.00,,,0.00,,VWS V13.01,2013-02-13 21:34:00,
2013-02-13 17:36:00,53.3,23.5,29.71,West,260,12.0,12.0,31,0.00,,,0.00,,VWS V13.01,2013-02-13 21:36:00,
2013-02-13 17:37:00,53.3,23.5,29.71,WSW,251,2.0,12.0,31,0.00,,,0.00,,VWS V13.01,2013-02-13 21:37:00,
2013-02-13 17:39:00,53.3,23.5,29.71,West,271,6.0,22.0,31,0.00,,,0.00,,VWS V13.01,2013-02-13 21:39:00,
2013-02-13 17:42:00,53.3,23.5,29.71,SW,230,8.0,14.0,31,0.00,,,0.00,,VWS V13.01,2013-02-13 21:42:00,
2013-02-13 17:44:00,53.5,23.6,29.71,WSW,241,12.0,26.0,31,0.00,,,0.00,,VWS V13.01,2013-02-13 21:44:00,
2013-02-13 17:45:00,53.5,22.9,29.71,WSW,258,12.0,16.0,30,0.00,,,0.00,,VWS V13.01,2013-02-13 21:45:00,
2013-02-13 17:47:00,53.5,22.9,29.70,SW,233,8.0,16.0,30,0.00,,,0.00,,VWS V13.01,2013-02-13 21:47:00,
2013-02-13 17:49:00,53.5,22.9,29.70,WSW,254,0.0,14.0,30,0.00,,,0.00,,VWS V13.01,2013-02-13 21:49:00,
2013-02-13 17:50:00,53.5,23.6,29.70,NW,315,14.0,22.0,31,0.00,,,0.00,,VWS V13.01,2013-02-13 21:50:00,
2013-02-13 17:52:00,53.5,23.6,29.70,WNW,285,16.0,22.0,31,0.00,,,0.00,,VWS V13.01,2013-02-13 21:52:00,
2013-02-13 17:54:00,53.3,22.7,29.70,NW,318,6.0,22.0,30,0.00,,,0.00,,VWS V13.01,2013-02-13 21:54:00,
2013-02-13 17:55:00,53.3,23.5,29.70,WSW,254,2.0,14.0,31,0.00,,,0.00,,VWS V13.01,2013-02-13 21:55:00,
2013-02-13 17:57:00,53.3,23.5,29.70,West,267,12.0,20.0,31,0.00,,,0.00,,VWS V13.01,2013-02-13 21:57:00,
2013-02-13 18:00:00,53.5,22.9,29.70,SW,220,6.0,18.0,30,0.00,,,0.00,,VWS V13.01,2013-02-13 22:00:00,
2013-02-13 18:03:00,53.5,22.0,29.70,WSW,246,12.0,22.0,29,0.00,,,0.00,,VWS V13.01,2013-02-13 22:03:00,
2013-02-13 18:05:00,53.3,23.5,29.70,WNW,284,12.0,20.0,31,0.00,,,0.00,,VWS V13.01,2013-02-13 22:05:00,
2013-02-13 18:08:00,53.3,22.7,29.70,SW,236,2.0,16.0,30,0.00,,,0.00,,VWS V13.01,2013-02-13 22:08:00,
2013-02-13 18:10:00,53.3,23.5,29.70,SSW,208,12.0,12.0,31,0.00,,,0.00,,VWS V13.01,2013-02-13 22:10:00,
2013-02-13 18:13:00,53.2,23.4,29.70,WSW,246,6.0,14.0,31,0.00,,,0.00,,VWS V13.01,2013-02-13 22:13:00,
2013-02-13 18:15:00,53.2,23.4,29.70,West,275,8.0,14.0,31,0.00,,,0.00,,VWS V13.01,2013-02-13 22:15:00,
2013-02-13 18:16:00,53.2,23.4,29.70,SSW,203,12.0,14.0,31,0.00,,,0.00,,VWS V13.01,2013-02-13 22:16:00,
2013-02-13 18:18:00,53.2,22.6,29.70,WNW,295,14.0,22.0,30,0.00,,,0.00,,VWS V13.01,2013-02-13 22:18:00,
2013-02-13 18:19:00,53.2,22.6,29.70,WSW,239,4.0,16.0,30,0.00,,,0.00,,VWS V13.01,2013-02-13 22:19:00,
2013-02-13 18:20:00,53.2,22.6,29.70,NW,306,14.0,22.0,30,0.00,,,0.00,,VWS V13.01,2013-02-13 22:20:00,
2013-02-13 18:21:00,53.2,22.6,29.70,WSW,256,2.0,22.0,30,0.00,,,0.00,,VWS V13.01,2013-02-13 22:21:00,
2013-02-13 18:23:00,53.1,23.3,29.70,NNW,344,24.0,24.0,31,0.00,,,0.00,,VWS V13.01,2013-02-13 22:23:00,
2013-02-13 18:25:00,53.1,23.3,29.70,WNW,294,4.0,26.0,31,0.00,,,0.00,,VWS V13.01,2013-02-13 22:25:00,
2013-02-13 18:26:00,53.1,24.0,29.70,WNW,287,8.0,12.0,32,0.00,,,0.00,,VWS V13.01,2013-02-13 22:26:00,
2013-02-13 18:28:00,52.9,23.9,29.70,WSW,258,2.0,6.0,32,0.00,,,0.00,,VWS V13.01,2013-02-13 22:28:00,
2013-02-13 18:30:00,52.9,23.9,29.70,West,263,10.0,12.0,32,0.00,,,0.00,,VWS V13.01,2013-02-13 22:30:00,
2013-02-13 18:31:00,52.9,23.9,29.71,NW,325,12.0,14.0,32,0.00,,,0.00,,VWS V13.01,2013-02-13 22:31:00,
2013-02-13 18:33:00,52.9,23.1,29.71,WNW,295,2.0,16.0,31,0.00,,,0.00,,VWS V13.01,2013-02-13 22:33:00,
2013-02-13 18:35:00,52.8,23.0,29.71,WNW,296,10.0,22.0,31,0.00,,,0.00,,VWS V13.01,2013-02-13 22:35:00,
2013-02-13 18:36:00,52.8,23.0,29.71,West,272,16.0,20.0,31,0.00,,,0.00,,VWS V13.01,2013-02-13 22:36:00,
2013-02-13 18:37:00,52.8,23.0,29.71,West,268,12.0,20.0,31,0.00,,,0.00,,VWS V13.01,2013-02-13 22:37:00,
2013-02-13 18:39:00,52.6,22.9,29.71,SSW,206,4.0,20.0,31,0.00,,,0.00,,VWS V13.01,2013-02-13 22:39:00,
2013-02-13 18:40:00,52.6,23.6,29.71,SW,220,0.0,12.0,32,0.00,,,0.00,,VWS V13.01,2013-02-13 22:40:00,
2013-02-13 18:42:00,52.6,23.6,29.71,SW,220,10.0,10.0,32,0.00,,,0.00,,VWS V13.01,2013-02-13 22:42:00,
2013-02-13 18:45:00,52.6,23.6,29.71,WNW,289,10.0,14.0,32,0.00,,,0.00,,VWS V13.01,2013-02-13 22:45:00,
2013-02-13 18:46:00,52.6,23.6,29.71,West,280,6.0,14.0,32,0.00,,,0.00,,VWS V13.01,2013-02-13 22:46:00,
2013-02-13 18:47:00,52.6,23.6,29.71,WSW,256,6.0,10.0,32,0.00,,,0.00,,VWS V13.01,2013-02-13 22:47:00,
2013-02-13 18:51:00,52.8,23.8,29.71,SSW,213,2.0,12.0,32,0.00,,,0.00,,VWS V13.01,2013-02-13 22:51:00,
2013-02-13 18:52:00,52.8,23.8,29.71,WSW,257,2.0,14.0,32,0.00,,,0.00,,VWS V13.01,2013-02-13 22:52:00,
2013-02-13 18:56:00,52.6,23.6,29.71,West,277,12.0,20.0,32,0.00,,,0.00,,VWS V13.01,2013-02-13 22:56:00,
2013-02-13 18:57:00,52.6,23.6,29.71,WNW,284,2.0,14.0,32,0.00,,,0.00,,VWS V13.01,2013-02-13 22:57:00,
2013-02-13 19:00:00,51.1,25.8,29.71,West,265,0.0,6.0,37,0.00,,SCT055,0.00,0.00,VWS V14.01,2013-02-13 23:00:00,
2013-02-13 19:01:00,52.5,24.2,29.71,WNW,284,0.0,0.0,33,0.00,,,0.00,,VWS V13.01,2013-02-13 23:01:00,
2013-02-13 19:02:00,52.5,24.2,29.71,SW,226,6.0,6.0,33,0.00,,,0.00,,VWS V13.01,2013-02-13 23:02:00,
2013-02-13 19:06:00,52.3,24.8,29.71,WNW,284,0.0,10.0,34,0.00,,,0.00,,VWS V13.01,2013-02-13 23:06:00,
2013-02-13 19:07:00,52.3,24.8,29.71,WSW,248,8.0,12.0,34,0.00,,,0.00,,VWS V13.01,2013-02-13 23:07:00,
2013-02-13 19:08:00,52.3,24.8,29.71,WSW,248,2.0,12.0,34,0.00,,,0.00,,VWS V13.01,2013-02-13 23:08:00,
2013-02-13 19:11:00,52.2,24.7,29.71,SW,232,6.0,10.0,34,0.00,,,0.00,,VWS V13.01,2013-02-13 23:11:00,
2013-02-13 19:12:00,52.2,24.7,29.71,SW,232,4.0,10.0,34,0.00,,,0.00,,VWS V13.01,2013-02-13 23:12:00,
2013-02-13 19:13:00,52.2,24.7,29.71,SW,236,4.0,10.0,34,0.00,,,0.00,,VWS V13.01,2013-02-13 23:13:00,
2013-02-13 19:17:00,52.2,24.7,29.70,WSW,239,0.0,6.0,34,0.00,,,0.00,,VWS V13.01,2013-02-13 23:17:00,
2013-02-13 19:18:00,52.2,24.7,29.70,WSW,239,0.0,2.0,34,0.00,,,0.00,,VWS V13.01,2013-02-13 23:18:00,
2013-02-13 19:22:00,52.0,24.5,29.70,WNW,291,4.0,14.0,34,0.00,,,0.00,,VWS V13.01,2013-02-13 23:22:00,
2013-02-13 19:23:00,52.0,25.2,29.70,West,271,6.0,14.0,35,0.00,,,0.00,,VWS V13.01,2013-02-13 23:23:00,
2013-02-13 19:27:00,52.0,25.2,29.70,West,275,8.0,12.0,35,0.00,,,0.00,,VWS V13.01,2013-02-13 23:27:00,
2013-02-13 19:28:00,52.0,24.5,29.70,West,278,2.0,12.0,34,0.00,,,0.00,,VWS V13.01,2013-02-13 23:28:00,
2013-02-13 19:29:00,52.0,24.5,29.70,WSW,247,10.0,12.0,34,0.00,,,0.00,,VWS V13.01,2013-02-13 23:29:00,
2013-02-13 19:30:00,50.1,26.1,29.72,West,278,0.0,0.0,39,0.00,,SCT055,0.00,0.00,VWS V14.01,2013-02-13 23:30:00,
2013-02-13 19:33:00,51.9,25.1,29.70,WSW,250,0.0,4.0,35,0.00,,,0.00,,VWS V13.01,2013-02-13 23:33:00,
2013-02-13 19:34:00,51.9,25.1,29.70,WSW,250,0.0,4.0,35,0.00,,,0.00,,VWS V13.01,2013-02-13 23:34:00,
2013-02-13 19:38:00,51.7,25.0,29.70,West,274,10.0,12.0,35,0.00,,,0.00,,VWS V13.01,2013-02-13 23:38:00,
2013-02-13 19:39:00,51.7,25.0,29.70,West,275,2.0,12.0,35,0.00,,,0.00,,VWS V13.01,2013-02-13 23:39:00,
2013-02-13 19:43:00,51.6,25.5,29.70,WSW,240,2.0,6.0,36,0.00,,,0.00,,VWS V13.01,2013-02-13 23:43:00,
2013-02-13 19:44:00,51.6,25.5,29.70,West,274,0.0,12.0,36,0.00,,,0.00,,VWS V13.01,2013-02-13 23:44:00,
2013-02-13 19:48:00,51.4,25.4,29.71,West,275,0.0,14.0,36,0.00,,,0.00,,VWS V13.01,2013-02-13 23:48:00,
2013-02-13 19:49:00,51.4,25.4,29.71,West,274,0.0,12.0,36,0.00,,,0.00,,VWS V13.01,2013-02-13 23:49:00,
2013-02-13 19:50:00,51.4,25.4,29.71,West,274,0.0,0.0,36,0.00,,,0.00,,VWS V13.01,2013-02-13 23:50:00,
2013-02-13 19:53:00,51.3,25.3,29.71,West,274,0.0,2.0,36,0.00,,,0.00,,VWS V13.01,2013-02-13 23:53:00,
2013-02-13 19:54:00,51.3,25.3,29.71,West,271,0.0,2.0,36,0.00,,,0.00,,VWS V13.01,2013-02-13 23:54:00,
2013-02-13 19:55:00,51.3,25.3,29.71,West,271,0.0,2.0,36,0.00,,,0.00,,VWS V13.01,2013-02-13 23:55:00,
2013-02-13 19:56:00,51.3,25.9,29.71,West,265,0.0,0.0,37,0.00,,,0.00,,VWS V13.01,2013-02-13 23:56:00,
2013-02-13 19:58:00,51.1,25.8,29.71,West,271,0.0,0.0,37,0.00,,,0.00,,VWS V13.01,2013-02-13 23:58:00,
2013-02-13 19:59:00,51.1,25.8,29.71,West,271,0.0,0.0,37,0.00,,,0.00,,VWS V13.01,2013-02-13 23:59:00,
2013-02-13 20:00:00,51.1,25.8,29.71,West,271,0.0,2.0,37,0.00,,,0.00,,VWS V13.01,2013-02-14 00:00:00,
2013-02-13 20:04:00,51.0,25.7,29.71,West,265,0.0,2.0,37,0.00,,,0.00,,VWS V13.01,2013-02-14 00:04:00,
2013-02-13 20:06:00,51.0,25.7,29.71,West,265,0.0,0.0,37,0.00,,,0.00,,VWS V13.01,2013-02-14 00:06:00,
2013-02-13 20:09:00,50.8,25.5,29.71,West,267,6.0,6.0,37,0.00,,,0.00,,VWS V13.01,2013-02-14 00:09:00,
2013-02-13 20:11:00,50.8,25.5,29.71,West,267,0.0,4.0,37,0.00,,,0.00,,VWS V13.01,2013-02-14 00:11:00,
2013-02-13 20:14:00,50.7,25.4,29.71,West,267,0.0,2.0,37,0.00,,,0.00,,VWS V13.01,2013-02-14 00:14:00,
2013-02-13 20:16:00,50.5,25.9,29.71,West,267,0.0,0.0,38,0.00,,,0.00,,VWS V13.01,2013-02-14 00:16:00,
2013-02-13 20:18:00,50.5,25.9,29.71,West,267,0.0,0.0,38,0.00,,,0.00,,VWS V13.01,2013-02-14 00:18:00,
2013-02-13 20:19:00,50.5,25.9,29.71,West,267,0.0,0.0,38,0.00,,,0.00,,VWS V13.01,2013-02-14 00:19:00,
2013-02-13 20:21:00,50.4,25.8,29.71,West,267,0.0,0.0,38,0.00,,,0.00,,VWS V13.01,2013-02-14 00:21:00,
2013-02-13 20:23:00,50.4,25.8,29.71,West,278,2.0,12.0,38,0.00,,,0.00,,VWS V13.01,2013-02-14 00:23:00,
2013-02-13 20:24:00,50.4,25.8,29.71,West,277,4.0,16.0,38,0.00,,,0.00,,VWS V13.01,2013-02-14 00:24:00,
2013-02-13 20:25:00,50.2,25.6,29.71,West,277,0.0,16.0,38,0.00,,,0.00,,VWS V13.01,2013-02-14 00:25:00,
2013-02-13 20:26:00,50.2,25.6,29.71,West,277,0.0,4.0,38,0.00,,,0.00,,VWS V13.01,2013-02-14 00:26:00,
2013-02-13 20:28:00,50.2,25.6,29.71,West,278,0.0,2.0,38,0.00,,,0.00,,VWS V13.01,2013-02-14 00:28:00,
2013-02-13 20:29:00,50.2,25.6,29.71,West,278,0.0,0.0,38,0.00,,,0.00,,VWS V13.01,2013-02-14 00:29:00,
2013-02-13 20:30:00,50.1,26.1,29.71,West,278,0.0,0.0,39,0.00,,,0.00,,VWS V13.01,2013-02-14 00:30:00,
2013-02-13 20:31:00,50.1,26.1,29.72,West,277,0.0,0.0,39,0.00,,,0.00,,VWS V13.01,2013-02-14 00:31:00,
2013-02-13 20:33:00,50.1,26.1,29.72,West,275,6.0,6.0,39,0.00,,,0.00,,VWS V13.01,2013-02-14 00:33:00,
2013-02-13 20:35:00,50.1,26.1,29.72,WSW,247,0.0,6.0,39,0.00,,,0.00,,VWS V13.01,2013-02-14 00:35:00,
2013-02-13 20:36:00,49.9,26.0,29.72,WSW,247,0.0,6.0,39,0.00,,,0.00,,VWS V13.01,2013-02-14 00:36:00,
2013-02-13 20:39:00,49.9,26.0,29.72,West,277,0.0,10.0,39,0.00,,,0.00,,VWS V13.01,2013-02-14 00:39:00,
2013-02-13 20:40:00,49.9,26.0,29.72,West,277,0.0,10.0,39,0.00,,,0.00,,VWS V13.01,2013-02-14 00:40:00,
2013-02-13 20:41:00,49.9,26.0,29.72,West,277,0.0,0.0,39,0.00,,,0.00,,VWS V13.01,2013-02-14 00:41:00,
2013-02-13 20:42:00,49.9,26.0,29.72,West,277,2.0,2.0,39,0.00,,,0.00,,VWS V13.01,2013-02-14 00:42:00,
2013-02-13 20:44:00,49.8,25.9,29.72,West,271,0.0,10.0,39,0.00,,,0.00,,VWS V13.01,2013-02-14 00:44:00,
2013-02-13 20:45:00,49.8,25.9,29.72,West,271,0.0,10.0,39,0.00,,,0.00,,VWS V13.01,2013-02-14 00:45:00,
2013-02-13 20:46:00,49.8,26.5,29.72,West,271,0.0,0.0,40,0.00,,,0.00,,VWS V13.01,2013-02-14 00:46:00,
2013-02-13 20:47:00,49.8,26.5,29.72,West,271,0.0,0.0,40,0.00,,,0.00,,VWS V13.01,2013-02-14 00:47:00,
2013-02-13 20:50:00,49.8,26.5,29.72,West,271,0.0,6.0,40,0.00,,,0.00,,VWS V13.01,2013-02-14 00:50:00,
2013-02-13 20:51:00,49.8,26.5,29.72,West,271,0.0,2.0,40,0.00,,,0.00,,VWS V13.01,2013-02-14 00:51:00,
2013-02-13 20:52:00,49.8,26.5,29.72,NW,311,8.0,14.0,40,0.00,,,0.00,,VWS V13.01,2013-02-14 00:52:00,
2013-02-13 20:55:00,49.6,26.3,29.72,WNW,288,0.0,8.0,40,0.00,,,0.00,,VWS V13.01,2013-02-14 00:55:00,
2013-02-13 20:56:00,49.6,26.3,29.72,WNW,285,14.0,14.0,40,0.00,,,0.00,,VWS V13.01,2013-02-14 00:56:00,
2013-02-13 20:57:00,49.6,26.3,29.72,West,272,6.0,14.0,40,0.00,,,0.00,,VWS V13.01,2013-02-14 00:57:00,
2013-02-13 21:00:00,49.6,26.3,29.72,WNW,295,0.0,4.0,40,0.00,,,0.00,,VWS V13.01,2013-02-14 01:00:00,
2013-02-13 21:01:00,49.6,26.3,29.72,WNW,295,0.0,4.0,40,0.00,,,0.00,,VWS V13.01,2013-02-14 01:01:00,
2013-02-13 21:03:00,49.6,26.3,29.72,WNW,295,0.0,0.0,40,0.00,,,0.00,,VWS V13.01,2013-02-14 01:03:00,
2013-02-13 21:06:00,49.6,26.9,29.72,WNW,292,6.0,14.0,41,0.00,,,0.00,,VWS V13.01,2013-02-14 01:06:00,
2013-02-13 21:07:00,49.5,26.8,29.72,WNW,292,0.0,10.0,41,0.00,,,0.00,,VWS V13.01,2013-02-14 01:07:00,
2013-02-13 21:08:00,49.5,26.8,29.72,WNW,292,0.0,6.0,41,0.00,,,0.00,,VWS V13.01,2013-02-14 01:08:00,
2013-02-13 21:11:00,49.5,26.8,29.72,NW,319,6.0,6.0,41,0.00,,,0.00,,VWS V13.01,2013-02-14 01:11:00,
2013-02-13 21:12:00,49.5,26.8,29.72,WSW,257,0.0,10.0,41,0.00,,,0.00,,VWS V13.01,2013-02-14 01:12:00,
2013-02-13 21:13:00,49.5,26.8,29.72,WSW,257,0.0,10.0,41,0.00,,,0.00,,VWS V13.01,2013-02-14 01:13:00,
2013-02-13 21:16:00,49.4,27.3,29.72,WNW,294,12.0,16.0,42,0.00,,,0.00,,VWS V13.01,2013-02-14 01:16:00,
2013-02-13 21:17:00,49.4,27.3,29.72,WNW,292,0.0,16.0,42,0.00,,,0.00,,VWS V13.01,2013-02-14 01:17:00,
2013-02-13 21:18:00,49.2,27.1,29.72,WNW,284,2.0,8.0,42,0.00,,,0.00,,VWS V13.01,2013-02-14 01:18:00,
2013-02-13 21:21:00,49.2,27.1,29.72,West,274,6.0,10.0,42,0.00,,,0.00,,VWS V13.01,2013-02-14 01:21:00,
2013-02-13 21:22:00,49.2,27.1,29.72,WSW,258,10.0,10.0,42,0.00,,,0.00,,VWS V13.01,2013-02-14 01:22:00,
2013-02-13 21:23:00,49.1,27.6,29.72,WSW,258,0.0,10.0,43,0.00,,,0.00,,VWS V13.01,2013-02-14 01:23:00,
2013-02-13 21:26:00,49.1,27.6,29.72,West,260,4.0,8.0,43,0.00,,,0.00,,VWS V13.01,2013-02-14 01:26:00,
2013-02-13 21:27:00,48.9,27.4,29.72,West,263,0.0,6.0,43,0.00,,,0.00,,VWS V13.01,2013-02-14 01:27:00,
2013-02-13 21:29:00,48.9,27.4,29.72,West,263,0.0,6.0,43,0.00,,,0.00,,VWS V13.01,2013-02-14 01:29:00,
2013-02-13 21:30:00,45.5,27.5,29.73,WNW,296,0.0,10.0,49,0.00,,SCT055,0.00,0.00,VWS V14.01,2013-02-14 01:30:00,
2013-02-13 21:31:00,48.8,27.3,29.73,WNW,301,6.0,6.0,43,0.00,,,0.00,,VWS V13.01,2013-02-14 01:31:00,
2013-02-13 21:32:00,48.8,27.3,29.73,West,281,0.0,6.0,43,0.00,,,0.00,,VWS V13.01,2013-02-14 01:32:00,
2013-02-13 21:34:00,48.8,27.3,29.73,West,281,0.0,2.0,43,0.00,,,0.00,,VWS V13.01,2013-02-14 01:34:00,
2013-02-13 21:36:00,48.6,27.1,29.73,WSW,237,0.0,16.0,43,0.00,,,0.00,,VWS V13.01,2013-02-14 01:36:00,
2013-02-13 21:37:00,48.5,27.6,29.73,WSW,237,0.0,4.0,44,0.00,,,0.00,,VWS V13.01,2013-02-14 01:37:00,
2013-02-13 21:39:00,48.5,27.6,29.73,WSW,237,0.0,0.0,44,0.00,,,0.00,,VWS V13.01,2013-02-14 01:39:00,
2013-02-13 21:42:00,48.3,27.4,29.73,WSW,237,0.0,0.0,44,0.00,,,0.00,,VWS V13.01,2013-02-14 01:42:00,
2013-02-13 21:43:00,48.2,27.3,29.73,WSW,237,0.0,0.0,44,0.00,,,0.00,,VWS V13.01,2013-02-14 01:43:00,
2013-02-13 21:45:00,48.2,27.3,29.73,West,267,0.0,10.0,44,0.00,,,0.00,,VWS V13.01,2013-02-14 01:45:00,
2013-02-13 21:47:00,48.0,27.7,29.73,West,267,0.0,0.0,45,0.00,,,0.00,,VWS V13.01,2013-02-14 01:47:00,
2013-02-13 21:48:00,48.0,27.7,29.73,West,265,0.0,0.0,45,0.00,,,0.00,,VWS V13.01,2013-02-14 01:48:00,
2013-02-13 21:50:00,47.9,27.6,29.73,West,267,0.0,0.0,45,0.00,,,0.00,,VWS V13.01,2013-02-14 01:50:00,
2013-02-13 21:52:00,47.7,27.4,29.73,West,267,0.0,0.0,45,0.00,,,0.00,,VWS V13.01,2013-02-14 01:52:00,
2013-02-13 21:53:00,47.7,27.4,29.73,West,267,0.0,0.0,45,0.00,,,0.00,,VWS V13.01,2013-02-14 01:53:00,
2013-02-13 21:55:00,47.6,27.3,29.73,West,267,0.0,0.0,45,0.00,,,0.00,,VWS V13.01,2013-02-14 01:55:00,
2013-02-13 21:57:00,47.4,27.1,29.73,West,265,0.0,0.0,45,0.00,,,0.00,,VWS V13.01,2013-02-14 01:57:00,
2013-02-13 21:58:00,47.4,27.7,29.73,West,267,0.0,0.0,46,0.00,,,0.00,,VWS V13.01,2013-02-14 01:58:00,
2013-02-13 21:59:00,47.4,27.7,29.73,West,267,0.0,0.0,46,0.00,,,0.00,,VWS V13.01,2013-02-14 01:59:00,
2013-02-13 22:00:00,47.3,27.6,29.73,West,267,0.0,6.0,46,0.00,,,0.00,,VWS V13.01,2013-02-14 02:00:00,
2013-02-13 22:03:00,47.1,27.4,29.74,West,270,6.0,6.0,46,0.00,,,0.00,,VWS V13.01,2013-02-14 02:03:00,
2013-02-13 22:04:00,47.1,27.4,29.74,WSW,244,2.0,14.0,46,0.00,,,0.00,,VWS V13.01,2013-02-14 02:04:00,
2013-02-13 22:05:00,47.0,27.3,29.74,WSW,244,0.0,4.0,46,0.00,,,0.00,,VWS V13.01,2013-02-14 02:05:00,
2013-02-13 22:08:00,47.0,27.3,29.74,WSW,244,0.0,0.0,46,0.00,,,0.00,,VWS V13.01,2013-02-14 02:08:00,
2013-02-13 22:09:00,46.8,27.1,29.74,WSW,244,0.0,0.0,46,0.00,,,0.00,,VWS V13.01,2013-02-14 02:09:00,
2013-02-13 22:10:00,46.8,27.6,29.74,WSW,246,2.0,6.0,47,0.00,,,0.00,,VWS V13.01,2013-02-14 02:10:00,
2013-02-13 22:13:00,46.7,27.6,29.74,WSW,246,0.0,0.0,47,0.00,,,0.00,,VWS V13.01,2013-02-14 02:13:00,
2013-02-13 22:14:00,46.5,27.4,29.74,WSW,246,0.0,0.0,47,0.00,,,0.00,,VWS V13.01,2013-02-14 02:14:00,
2013-02-13 22:15:00,46.5,27.4,29.73,WSW,246,0.0,0.0,47,0.00,,,0.00,,VWS V13.01,2013-02-14 02:15:00,
2013-02-13 22:18:00,46.4,27.8,29.73,WSW,246,0.0,2.0,48,0.00,,,0.00,,VWS V13.01,2013-02-14 02:18:00,
2013-02-13 22:19:00,46.2,27.6,29.73,WSW,246,0.0,2.0,48,0.00,,,0.00,,VWS V13.01,2013-02-14 02:19:00,
2013-02-13 22:21:00,46.1,27.5,29.73,WNW,292,0.0,6.0,48,0.00,,,0.00,,VWS V13.01,2013-02-14 02:21:00,
2013-02-13 22:23:00,46.0,27.9,29.73,WNW,292,0.0,6.0,49,0.00,,,0.00,,VWS V13.01,2013-02-14 02:23:00,
2013-02-13 22:24:00,46.0,27.9,29.73,WNW,292,0.0,0.0,49,0.00,,,0.00,,VWS V13.01,2013-02-14 02:24:00,
2013-02-13 22:27:00,45.8,27.7,29.73,WNW,292,0.0,6.0,49,0.00,,,0.00,,VWS V13.01,2013-02-14 02:27:00,
2013-02-13 22:28:00,45.7,27.6,29.73,WNW,292,0.0,0.0,49,0.00,,,0.00,,VWS V13.01,2013-02-14 02:28:00,
2013-02-13 22:29:00,45.7,27.6,29.73,WNW,292,0.0,0.0,49,0.00,,,0.00,,VWS V13.01,2013-02-14 02:29:00,
2013-02-13 22:30:00,43.3,27.3,29.74,West,281,0.0,0.0,53,0.00,,SCT055,0.00,0.00,VWS V14.01,2013-02-14 02:30:00,
2013-02-13 22:32:00,45.5,27.5,29.73,WNW,296,0.0,10.0,49,0.00,,,0.00,,VWS V13.01,2013-02-14 02:32:00,
2013-02-13 22:33:00,45.4,27.4,29.73,WNW,295,0.0,0.0,49,0.00,,,0.00,,VWS V13.01,2013-02-14 02:33:00,
2013-02-13 22:34:00,45.4,27.4,29.73,WNW,295,0.0,0.0,49,0.00,,,0.00,,VWS V13.01,2013-02-14 02:34:00,
2013-02-13 22:35:00,45.4,27.4,29.73,WNW,301,10.0,10.0,49,0.00,,,0.00,,VWS V13.01,2013-02-14 02:35:00,
2013-02-13 22:37:00,45.2,27.7,29.73,West,271,6.0,16.0,50,0.00,,,0.00,,VWS V13.01,2013-02-14 02:37:00,
2013-02-13 22:38:00,45.2,27.7,29.73,West,263,0.0,12.0,50,0.00,,,0.00,,VWS V13.01,2013-02-14 02:38:00,
2013-02-13 22:39:00,45.2,27.7,29.73,West,281,6.0,8.0,50,0.00,,,0.00,,VWS V13.01,2013-02-14 02:39:00,
2013-02-13 22:40:00,45.2,27.7,29.73,West,278,6.0,8.0,50,0.00,,,0.00,,VWS V13.01,2013-02-14 02:40:00,
2013-02-13 22:43:00,45.2,27.7,29.73,WNW,282,10.0,12.0,50,0.00,,,0.00,,VWS V13.01,2013-02-14 02:43:00,
2013-02-13 22:44:00,45.2,27.7,29.73,WNW,282,4.0,12.0,50,0.00,,,0.00,,VWS V13.01,2013-02-14 02:44:00,
2013-02-13 22:45:00,45.2,27.7,29.73,WNW,282,0.0,10.0,50,0.00,,,0.00,,VWS V13.01,2013-02-14 02:45:00,
2013-02-13 22:48:00,45.1,27.6,29.74,WNW,282,0.0,8.0,50,0.00,,,0.00,,VWS V13.01,2013-02-14 02:48:00,
2013-02-13 22:49:00,45.1,27.6,29.74,West,270,0.0,14.0,50,0.00,,,0.00,,VWS V13.01,2013-02-14 02:49:00,
2013-02-13 22:50:00,45.1,27.6,29.74,West,275,2.0,14.0,50,0.00,,,0.00,,VWS V13.01,2013-02-14 02:50:00,
2013-02-13 22:53:00,45.1,27.6,29.74,WNW,294,2.0,6.0,50,0.00,,,0.00,,VWS V13.01,2013-02-14 02:53:00,
2013-02-13 22:54:00,45.1,27.6,29.74,West,274,4.0,12.0,50,0.00,,,0.00,,VWS V13.01,2013-02-14 02:54:00,
2013-02-13 22:55:00,44.9,27.4,29.74,West,274,4.0,12.0,50,0.00,,,0.00,,VWS V13.01,2013-02-14 02:55:00,
2013-02-13 22:58:00,44.9,27.9,29.74,West,270,0.0,0.0,51,0.00,,,0.00,,VWS V13.01,2013-02-14 02:58:00,
2013-02-13 23:00:00,44.8,27.8,29.74,West,265,2.0,10.0,51,0.00,,,0.00,,VWS V13.01,2013-02-14 03:00:00,
2013-02-13 23:01:00,44.8,27.8,29.74,West,265,0.0,10.0,51,0.00,,,0.00,,VWS V13.01,2013-02-14 03:01:00,
2013-02-13 23:03:00,44.6,27.6,29.74,WSW,257,0.0,4.0,51,0.00,,,0.00,,VWS V13.01,2013-02-14 03:03:00,
2013-02-13 23:05:00,44.6,27.6,29.74,WSW,257,0.0,4.0,51,0.00,,,0.00,,VWS V13.01,2013-02-14 03:05:00,
2013-02-13 23:06:00,44.5,27.5,29.74,West,272,0.0,6.0,51,0.00,,,0.00,,VWS V13.01,2013-02-14 03:06:00,
2013-02-13 23:08:00,44.5,27.5,29.74,WSW,258,0.0,10.0,51,0.00,,,0.00,,VWS V13.01,2013-02-14 03:08:00,
2013-02-13 23:10:00,44.3,27.8,29.74,WSW,258,0.0,0.0,52,0.00,,,0.00,,VWS V13.01,2013-02-14 03:10:00,
2013-02-13 23:11:00,44.3,27.8,29.74,WSW,258,0.0,0.0,52,0.00,,,0.00,,VWS V13.01,2013-02-14 03:11:00,
2013-02-13 23:13:00,44.2,27.7,29.74,WSW,258,2.0,6.0,52,0.00,,,0.00,,VWS V13.01,2013-02-14 03:13:00,
2013-02-13 23:15:00,44.1,27.6,29.74,WSW,258,0.0,4.0,52,0.00,,,0.00,,VWS V13.01,2013-02-14 03:15:00,
2013-02-13 23:16:00,44.1,27.6,29.74,WSW,258,0.0,0.0,52,0.00,,,0.00,,VWS V13.01,2013-02-14 03:16:00,
2013-02-13 23:17:00,44.1,27.6,29.74,West,271,0.0,6.0,52,0.00,,,0.00,,VWS V13.01,2013-02-14 03:17:00,
2013-02-13 23:18:00,43.9,27.4,29.74,West,271,0.0,6.0,52,0.00,,,0.00,,VWS V13.01,2013-02-14 03:18:00,
2013-02-13 23:20:00,43.9,27.4,29.74,West,271,0.0,0.0,52,0.00,,,0.00,,VWS V13.01,2013-02-14 03:20:00,
2013-02-13 23:21:00,43.9,27.4,29.74,West,271,0.0,0.0,52,0.00,,,0.00,,VWS V13.01,2013-02-14 03:21:00,
2013-02-13 23:22:00,43.8,27.8,29.74,West,271,0.0,0.0,53,0.00,,,0.00,,VWS V13.01,2013-02-14 03:22:00,
2013-02-13 23:24:00,43.8,27.8,29.74,West,281,0.0,6.0,53,0.00,,,0.00,,VWS V13.01,2013-02-14 03:24:00,
2013-02-13 23:26:00,43.6,27.6,29.74,West,281,4.0,4.0,53,0.00,,,0.00,,VWS V13.01,2013-02-14 03:26:00,
2013-02-13 23:27:00,43.5,27.5,29.74,West,281,0.0,4.0,53,0.00,,,0.00,,VWS V13.01,2013-02-14 03:27:00,
2013-02-13 23:29:00,43.5,27.5,29.74,West,281,0.0,4.0,53,0.00,,,0.00,,VWS V13.01,2013-02-14 03:29:00,
2013-02-13 23:30:00,41.6,27.5,29.74,West,280,0.0,0.0,57,0.00,,SCT055,0.00,0.00,VWS V14.01,2013-02-14 03:30:00,
2013-02-13 23:31:00,43.3,27.3,29.74,West,281,0.0,0.0,53,0.00,,,0.00,,VWS V13.01,2013-02-14 03:31:00,
2013-02-13 23:32:00,43.3,27.3,29.74,West,281,0.0,0.0,53,0.00,,,0.00,,VWS V13.01,2013-02-14 03:32:00,
2013-02-13 23:34:00,43.2,27.7,29.74,WNW,288,6.0,10.0,54,0.00,,,0.00,,VWS V13.01,2013-02-14 03:34:00,
2013-02-13 23:36:00,43.2,27.7,29.74,WNW,288,0.0,10.0,54,0.00,,,0.00,,VWS V13.01,2013-02-14 03:36:00,
2013-02-13 23:37:00,43.2,27.7,29.74,WNW,288,0.0,0.0,54,0.00,,,0.00,,VWS V13.01,2013-02-14 03:37:00,
2013-02-13 23:39:00,43.1,27.6,29.74,WNW,287,0.0,8.0,54,0.00,,,0.00,,VWS V13.01,2013-02-14 03:39:00,
2013-02-13 23:41:00,43.1,27.6,29.74,West,267,0.0,10.0,54,0.00,,,0.00,,VWS V13.01,2013-02-14 03:41:00,
2013-02-13 23:42:00,42.9,27.4,29.74,West,267,0.0,10.0,54,0.00,,,0.00,,VWS V13.01,2013-02-14 03:42:00,
2013-02-13 23:43:00,42.9,27.4,29.74,West,267,0.0,0.0,54,0.00,,,0.00,,VWS V13.01,2013-02-14 03:43:00,
2013-02-13 23:45:00,42.9,27.4,29.74,West,265,0.0,0.0,54,0.00,,,0.00,,VWS V13.01,2013-02-14 03:45:00,
2013-02-13 23:47:00,42.9,27.9,29.74,West,267,0.0,2.0,55,0.00,,,0.00,,VWS V13.01,2013-02-14 03:47:00,
2013-02-13 23:48:00,42.8,27.8,29.74,WNW,288,0.0,4.0,55,0.00,,,0.00,,VWS V13.01,2013-02-14 03:48:00,
2013-02-13 23:51:00,42.8,27.8,29.74,WNW,288,0.0,4.0,55,0.00,,,0.00,,VWS V13.01,2013-02-14 03:51:00,
2013-02-13 23:52:00,42.6,27.6,29.74,WNW,288,0.0,0.0,55,0.00,,,0.00,,VWS V13.01,2013-02-14 03:52:00,
2013-02-13 23:53:00,42.6,27.6,29.74,WNW,288,0.0,0.0,55,0.00,,,0.00,,VWS V13.01,2013-02-14 03:53:00,
2013-02-13 23:56:00,42.5,27.5,29.74,WNW,288,0.0,0.0,55,0.00,,,0.00,,VWS V13.01,2013-02-14 03:56:00,
2013-02-13 23:57:00,42.5,27.5,29.74,WNW,288,0.0,0.0,55,0.00,,,0.00,,VWS V13.01,2013-02-14 03:57:00,
2013-02-13 23:59:00,42.5,27.5,29.74,WNW,288,0.0,0.0,55,0.00,,,0.00,,VWS V13.01,2013-02-14 03:59:00,